| time (UTC) | temp C | wind direction | speed KPH | gust KPH | rain 1hr cm | rain 24hr cm | rain mn cm | humidity % | barometer mb |
| 20260506070304 | 3 | 182 | 1.6 | 3.2 | 0.05 | 0.66 | 0.23 | 99 | 1009.1 |
| 20260506070204 | 3 | 197 | 1.6 | 3.2 | 0.05 | 0.66 | 0.23 | 99 | 1009.1 |
| 20260506070103 | 3 | 203 | 1.6 | 3.2 | 0.05 | 0.66 | 0.23 | 99 | 1009.0 |
| 20260506062505 | 2 | 167 | 0.0 | 6.4 | 0.15 | 0.66 | 0.23 | 99 | 1009.6 |
| 20260506062403 | 2 | 177 | 1.6 | 6.4 | 0.15 | 0.66 | 0.23 | 99 | 1009.4 |
| 20260506062305 | 2 | 172 | 1.6 | 6.4 | 0.15 | 0.66 | 0.23 | 99 | 1009.4 |
| 20260506062004 | 2 | 169 | 1.6 | 6.4 | 0.15 | 0.66 | 0.23 | 99 | 1009.4 |
| 20260506061904 | 2 | 169 | 1.6 | 6.4 | 0.15 | 0.66 | 0.23 | 99 | 1009.3 |
| 20260506061804 | 2 | 171 | 1.6 | 6.4 | 0.15 | 0.66 | 0.23 | 99 | 1009.4 |
| 20260506061603 | 2 | 173 | 3.2 | 6.4 | 0.15 | 0.66 | 0.23 | 99 | 1009.5 |
| 20260506061504 | 2 | 173 | 3.2 | 6.4 | 0.15 | 0.66 | 0.23 | 99 | 1009.4 |
| 20260506061403 | 2 | 164 | 3.2 | 3.2 | 0.15 | 0.66 | 0.23 | 99 | 1009.6 |
| 20260506061204 | 2 | 158 | 3.2 | 3.2 | 0.15 | 0.66 | 0.23 | 99 | 1009.5 |
| 20260506061104 | 2 | 152 | 3.2 | 3.2 | 0.15 | 0.66 | 0.23 | 99 | 1009.4 |
| 20260506061005 | 2 | 149 | 3.2 | 3.2 | 0.15 | 0.66 | 0.23 | 99 | 1009.3 |
| 20260506060904 | 2 | 154 | 3.2 | 6.4 | 0.15 | 0.66 | 0.23 | 99 | 1009.3 |
| 20260506060803 | 2 | 161 | 3.2 | 6.4 | 0.15 | 0.66 | 0.23 | 99 | 1009.4 |
| 20260506060704 | 2 | 165 | 3.2 | 6.4 | 0.15 | 0.66 | 0.23 | 99 | 1009.2 |
| 20260506060604 | 2 | 166 | 4.8 | 6.4 | 0.15 | 0.66 | 0.23 | 99 | 1009.4 |
| 20260506060504 | 2 | 168 | 3.2 | 6.4 | 0.10 | 0.61 | 0.18 | 99 | 1009.2 |
| 20260506060403 | 2 | 178 | 3.2 | 6.4 | 0.10 | 0.61 | 0.18 | 99 | 1009.2 |
| 20260506060303 | 2 | 181 | 3.2 | 6.4 | 0.10 | 0.61 | 0.18 | 99 | 1009.3 |
| 20260506060204 | 2 | 184 | 3.2 | 6.4 | 0.10 | 0.61 | 0.18 | 99 | 1009.1 |
| 20260506060104 | 2 | 187 | 3.2 | 6.4 | 0.10 | 0.61 | 0.18 | 99 | 1009.4 |
| 20260506051403 | 3 | 185 | 3.2 | 6.4 | 0.00 | 0.51 | 0.10 | 99 | 1009.7 |
| 20260506051303 | 3 | 191 | 3.2 | 6.4 | 0.00 | 0.51 | 0.10 | 99 | 1009.6 |
| 20260506051104 | 3 | 196 | 3.2 | 6.4 | 0.00 | 0.51 | 0.10 | 99 | 1009.5 |
| 20260506051005 | 3 | 198 | 3.2 | 6.4 | 0.00 | 0.51 | 0.10 | 99 | 1009.4 |
| 20260506050804 | 3 | 199 | 3.2 | 6.4 | 0.00 | 0.51 | 0.10 | 99 | 1009.5 |
| 20260506050703 | 3 | 207 | 3.2 | 6.4 | 0.00 | 0.51 | 0.10 | 99 | 1009.4 |
| 20260506050404 | 3 | 235 | 1.6 | 6.4 | 0.00 | 0.51 | 0.10 | 99 | 1009.5 |
| 20260506050303 | 3 | 236 | 1.6 | 6.4 | 0.00 | 0.51 | 0.10 | 99 | 1009.3 |
| 20260506050203 | 3 | 238 | 1.6 | 6.4 | 0.00 | 0.51 | 0.10 | 99 | 1009.4 |
| 20260506050104 | 3 | 226 | 1.6 | 6.4 | 0.00 | 0.51 | 0.10 | 99 | 1009.4 |
| 20260506044903 | 3 | 165 | 1.6 | 6.4 | 0.00 | 0.51 | 0.10 | 99 | 1009.3 |
| 20260506044804 | 3 | 164 | 1.6 | 6.4 | 0.00 | 0.51 | 0.10 | 99 | 1009.4 |
| 20260506044704 | 3 | 165 | 1.6 | 6.4 | 0.00 | 0.51 | 0.10 | 99 | 1009.5 |
| 20260506044604 | 3 | 165 | 1.6 | 6.4 | 0.00 | 0.51 | 0.10 | 99 | 1009.4 |
| 20260506044505 | 3 | 165 | 1.6 | 6.4 | 0.00 | 0.51 | 0.10 | 99 | 1009.3 |
| 20260506044404 | 3 | 165 | 1.6 | 6.4 | 0.00 | 0.51 | 0.10 | 99 | 1009.3 |
| 20260506044303 | 3 | 169 | 1.6 | 6.4 | 0.00 | 0.51 | 0.10 | 99 | 1009.4 |
| 20260506044203 | 3 | 135 | 0.0 | 6.4 | 0.00 | 0.51 | 0.10 | 99 | 1009.1 |
| 20260506044103 | 3 | 0 | 0.0 | 0.0 | 0.00 | 0.51 | 0.10 | 99 | 1009.3 |
| 20260506044004 | 3 | 0 | 0.0 | 0.0 | 0.00 | 0.51 | 0.10 | 99 | 1009.4 |
| 20260506043903 | 3 | 203 | 0.0 | 3.2 | 0.00 | 0.51 | 0.10 | 99 | 1009.3 |
| 20260506043804 | 3 | 203 | 0.0 | 3.2 | 0.00 | 0.51 | 0.10 | 99 | 1009.5 |
| 20260506043704 | 3 | 203 | 0.0 | 3.2 | 0.00 | 0.51 | 0.10 | 99 | 1009.3 |
| 20260506043504 | 3 | 203 | 0.0 | 3.2 | 0.00 | 0.51 | 0.10 | 99 | 1009.5 |
| 20260506043404 | 3 | 203 | 0.0 | 3.2 | 0.00 | 0.51 | 0.10 | 99 | 1009.0 |
| 20260506043203 | 2 | 203 | 0.0 | 3.2 | 0.00 | 0.51 | 0.10 | 99 | 1009.2 |
| 20260506043103 | 2 | 203 | 0.0 | 3.2 | 0.00 | 0.51 | 0.10 | 99 | 1009.2 |
| 20260506043004 | 2 | 203 | 0.0 | 3.2 | 0.00 | 0.51 | 0.10 | 99 | 1009.1 |
| 20260506042904 | 2 | 203 | 0.0 | 3.2 | 0.00 | 0.51 | 0.10 | 99 | 1009.1 |
| 20260506042704 | 3 | 0 | 0.0 | 0.0 | 0.00 | 0.51 | 0.10 | 99 | 1009.3 |
| 20260506042604 | 3 | 0 | 0.0 | 0.0 | 0.00 | 0.51 | 0.10 | 99 | 1009.2 |
| 20260506042504 | 3 | 0 | 0.0 | 0.0 | 0.00 | 0.51 | 0.10 | 99 | 1009.3 |
| 20260506042404 | 3 | 0 | 0.0 | 0.0 | 0.00 | 0.51 | 0.10 | 99 | 1009.3 |
| 20260506042305 | 3 | 0 | 0.0 | 0.0 | 0.00 | 0.51 | 0.10 | 99 | 1009.1 |
| 20260506042203 | 3 | 135 | 0.0 | 3.2 | 0.00 | 0.51 | 0.10 | 99 | 1009.2 |
| 20260506042103 | 3 | 135 | 0.0 | 3.2 | 0.00 | 0.51 | 0.10 | 99 | 1009.1 |
| 20260506042004 | 3 | 135 | 0.0 | 3.2 | 0.00 | 0.51 | 0.10 | 99 | 1009.3 |
| 20260506041904 | 3 | 135 | 0.0 | 3.2 | 0.00 | 0.51 | 0.10 | 99 | 1009.4 |
| 20260506041804 | 2 | 142 | 0.0 | 3.2 | 0.00 | 0.51 | 0.10 | 99 | 1009.3 |
| 20260506041704 | 2 | 142 | 0.0 | 3.2 | 0.00 | 0.51 | 0.10 | 99 | 1009.1 |
| 20260506041504 | 2 | 159 | 0.0 | 3.2 | 0.00 | 0.51 | 0.10 | 99 | 1009.3 |
| 20260506041403 | 3 | 159 | 1.6 | 3.2 | 0.00 | 0.51 | 0.10 | 99 | 1009.3 |
| 20260506041304 | 3 | 159 | 1.6 | 3.2 | 0.00 | 0.51 | 0.10 | 99 | 1009.2 |
| 20260506041204 | 2 | 162 | 0.0 | 3.2 | 0.00 | 0.51 | 0.10 | 99 | 1009.4 |
| 20260506041104 | 2 | 177 | 0.0 | 3.2 | 0.00 | 0.51 | 0.10 | 99 | 1009.1 |
| 20260506041004 | 2 | 182 | 0.0 | 3.2 | 0.00 | 0.51 | 0.10 | 99 | 1009.3 |
| 20260506040903 | 2 | 182 | 0.0 | 3.2 | 0.00 | 0.51 | 0.10 | 99 | 1009.2 |
| 20260506040704 | 2 | 203 | 0.0 | 3.2 | 0.00 | 0.51 | 0.10 | 99 | 1009.3 |
| 20260506040604 | 2 | 0 | 0.0 | 0.0 | 0.00 | 0.51 | 0.10 | 99 | 1009.3 |
| 20260506040404 | 2 | 0 | 0.0 | 0.0 | 0.00 | 0.51 | 0.10 | 99 | 1009.3 |
| 20260506040304 | 2 | 0 | 0.0 | 0.0 | 0.00 | 0.51 | 0.10 | 99 | 1009.2 |
| 20260506040204 | 2 | 158 | 0.0 | 3.2 | 0.00 | 0.51 | 0.10 | 99 | 1009.2 |
| 20260506040004 | 2 | 166 | 0.0 | 3.2 | 0.00 | 0.51 | 0.10 | 99 | 1009.2 |
| 20260506035903 | 2 | 165 | 0.0 | 3.2 | 0.00 | 0.51 | 0.10 | 99 | 1009.2 |
| 20260506035604 | 3 | 164 | 1.6 | 3.2 | 0.00 | 0.51 | 0.10 | 99 | 1009.4 |
| 20260506035505 | 3 | 163 | 1.6 | 3.2 | 0.00 | 0.51 | 0.10 | 99 | 1009.3 |
| 20260506035404 | 2 | 163 | 1.6 | 3.2 | 0.00 | 0.51 | 0.10 | 99 | 1009.1 |
| 20260506035203 | 2 | 165 | 1.6 | 3.2 | 0.00 | 0.51 | 0.10 | 99 | 1009.2 |
| 20260506035103 | 2 | 172 | 1.6 | 3.2 | 0.00 | 0.51 | 0.10 | 99 | 1009.4 |
| 20260506034903 | 2 | 167 | 1.6 | 3.2 | 0.00 | 0.51 | 0.10 | 99 | 1009.3 |
| 20260506034803 | 2 | 167 | 1.6 | 3.2 | 0.00 | 0.51 | 0.10 | 99 | 1009.4 |
| 20260506034703 | 2 | 166 | 1.6 | 3.2 | 0.00 | 0.51 | 0.10 | 99 | 1009.4 |
| 20260506034604 | 2 | 166 | 3.2 | 6.4 | 0.00 | 0.51 | 0.10 | 99 | 1009.2 |
| 20260506034504 | 2 | 164 | 3.2 | 6.4 | 0.00 | 0.51 | 0.10 | 99 | 1009.3 |
| 20260506034404 | 2 | 164 | 3.2 | 6.4 | 0.00 | 0.51 | 0.10 | 99 | 1009.3 |
| 20260506034304 | 2 | 169 | 3.2 | 6.4 | 0.00 | 0.51 | 0.10 | 99 | 1009.4 |
| 20260506034204 | 2 | 165 | 3.2 | 6.4 | 0.00 | 0.51 | 0.10 | 99 | 1009.4 |
| 20260506034004 | 2 | 157 | 1.6 | 6.4 | 0.00 | 0.51 | 0.10 | 99 | 1009.6 |
| 20260506033903 | 2 | 159 | 1.6 | 6.4 | 0.00 | 0.51 | 0.10 | 99 | 1009.2 |
| 20260506033804 | 2 | 161 | 1.6 | 6.4 | 0.00 | 0.51 | 0.10 | 99 | 1009.4 |
| 20260506033704 | 2 | 165 | 1.6 | 6.4 | 0.00 | 0.51 | 0.10 | 99 | 1009.5 |
| 20260506033604 | 2 | 166 | 1.6 | 3.2 | 0.00 | 0.51 | 0.10 | 99 | 1009.4 |
| 20260506033504 | 2 | 173 | 1.6 | 3.2 | 0.00 | 0.51 | 0.10 | 99 | 1009.6 |
| 20260506033403 | 2 | 174 | 1.6 | 3.2 | 0.00 | 0.51 | 0.10 | 99 | 1009.6 |
| 20260506033303 | 2 | 164 | 1.6 | 3.2 | 0.00 | 0.51 | 0.10 | 99 | 1009.7 |
| 20260506033104 | 2 | 169 | 1.6 | 3.2 | 0.00 | 0.51 | 0.10 | 99 | 1009.6 |
| 20260506033005 | 2 | 170 | 1.6 | 3.2 | 0.00 | 0.51 | 0.10 | 99 | 1009.7 |
| 20260506032904 | 2 | 171 | 3.2 | 3.2 | 0.00 | 0.51 | 0.10 | 99 | 1009.9 |
| 20260506032804 | 2 | 170 | 3.2 | 3.2 | 0.00 | 0.51 | 0.10 | 99 | 1009.6 |
| 20260506032703 | 2 | 166 | 3.2 | 3.2 | 0.00 | 0.51 | 0.10 | 99 | 1009.5 |
| 20260506032504 | 2 | 167 | 1.6 | 3.2 | 0.00 | 0.51 | 0.10 | 99 | 1009.5 |
| 20260506032403 | 2 | 166 | 1.6 | 3.2 | 0.00 | 0.51 | 0.10 | 99 | 1009.5 |
| 20260506032203 | 2 | 172 | 1.6 | 3.2 | 0.00 | 0.51 | 0.10 | 99 | 1009.4 |
| 20260506032104 | 2 | 174 | 1.6 | 3.2 | 0.00 | 0.51 | 0.10 | 99 | 1009.6 |
| 20260506032004 | 2 | 173 | 1.6 | 3.2 | 0.00 | 0.51 | 0.10 | 99 | 1009.5 |
| 20260506031904 | 2 | 172 | 1.6 | 3.2 | 0.00 | 0.51 | 0.10 | 99 | 1009.6 |
| 20260506031804 | 2 | 169 | 1.6 | 3.2 | 0.00 | 0.51 | 0.10 | 99 | 1009.6 |
| 20260506031704 | 2 | 178 | 1.6 | 3.2 | 0.00 | 0.51 | 0.10 | 99 | 1009.5 |
| 20260506031603 | 2 | 174 | 0.0 | 3.2 | 0.00 | 0.51 | 0.10 | 99 | 1009.7 |
| 20260506031504 | 2 | 174 | 0.0 | 3.2 | 0.00 | 0.51 | 0.10 | 99 | 1009.7 |
| 20260506031303 | 2 | 175 | 1.6 | 3.2 | 0.00 | 0.51 | 0.10 | 99 | 1009.9 |
| 20260506031203 | 2 | 173 | 0.0 | 3.2 | 0.00 | 0.51 | 0.10 | 99 | 1009.9 |
| 20260506031004 | 2 | 181 | 0.0 | 3.2 | 0.00 | 0.51 | 0.10 | 99 | 1010.0 |
| 20260506030904 | 2 | 181 | 0.0 | 3.2 | 0.00 | 0.51 | 0.10 | 99 | 1009.8 |
| 20260506030804 | 2 | 181 | 0.0 | 3.2 | 0.00 | 0.51 | 0.10 | 99 | 1009.8 |
| 20260506030703 | 2 | 181 | 0.0 | 3.2 | 0.00 | 0.51 | 0.10 | 99 | 1010.0 |
| 20260506030504 | 2 | 170 | 0.0 | 3.2 | 0.00 | 0.51 | 0.10 | 99 | 1009.8 |
| 20260506030403 | 2 | 164 | 0.0 | 3.2 | 0.00 | 0.51 | 0.10 | 99 | 1009.9 |
| 20260506030303 | 2 | 160 | 0.0 | 3.2 | 0.00 | 0.51 | 0.10 | 99 | 1009.8 |
| 20260506030204 | 2 | 158 | 0.0 | 3.2 | 0.00 | 0.51 | 0.10 | 99 | 1010.0 |
| 20260506030104 | 2 | 158 | 0.0 | 3.2 | 0.00 | 0.51 | 0.10 | 99 | 1010.0 |
| 20260506030004 | 2 | 158 | 0.0 | 3.2 | 0.00 | 0.51 | 0.10 | 99 | 1010.1 |
| 20260506025904 | 2 | 158 | 0.0 | 3.2 | 0.00 | 0.51 | 0.10 | 99 | 1010.0 |
| 20260506025804 | 2 | 158 | 0.0 | 3.2 | 0.00 | 0.51 | 0.10 | 99 | 1010.0 |
| 20260506025703 | 2 | 158 | 0.0 | 3.2 | 0.00 | 0.51 | 0.10 | 99 | 1010.0 |
| 20260506025603 | 2 | 158 | 1.6 | 3.2 | 0.00 | 0.51 | 0.10 | 99 | 1010.1 |
| 20260506025305 | 2 | 158 | 1.6 | 3.2 | 0.00 | 0.51 | 0.10 | 99 | 1009.9 |
| 20260506025103 | 2 | 158 | 1.6 | 3.2 | 0.00 | 0.51 | 0.10 | 99 | 1010.1 |
| 20260506025004 | 2 | 158 | 1.6 | 3.2 | 0.00 | 0.51 | 0.10 | 99 | 1010.1 |
| 20260506024903 | 2 | 158 | 1.6 | 3.2 | 0.00 | 0.51 | 0.10 | 99 | 1010.0 |
| 20260506024704 | 2 | 158 | 1.6 | 3.2 | 0.00 | 0.51 | 0.10 | 99 | 1010.3 |
| 20260506024604 | 2 | 158 | 0.0 | 3.2 | 0.00 | 0.51 | 0.10 | 99 | 1010.2 |
| 20260506024504 | 2 | 158 | 0.0 | 3.2 | 0.00 | 0.51 | 0.10 | 99 | 1010.2 |
| 20260506024404 | 2 | 158 | 0.0 | 3.2 | 0.00 | 0.51 | 0.10 | 99 | 1010.2 |
| 20260506024304 | 2 | 0 | 0.0 | 0.0 | 0.00 | 0.51 | 0.10 | 99 | 1010.1 |
| 20260506024203 | 2 | 0 | 0.0 | 0.0 | 0.00 | 0.51 | 0.10 | 99 | 1010.1 |
| 20260506024104 | 2 | 0 | 0.0 | 0.0 | 0.00 | 0.51 | 0.10 | 99 | 1010.1 |
| 20260506024005 | 2 | 0 | 0.0 | 0.0 | 0.00 | 0.51 | 0.10 | 99 | 1010.1 |
| 20260506023904 | 2 | 0 | 0.0 | 0.0 | 0.00 | 0.51 | 0.10 | 99 | 1010.1 |
| 20260506023803 | 2 | 0 | 0.0 | 0.0 | 0.00 | 0.51 | 0.10 | 99 | 1010.2 |
| 20260506023703 | 2 | 0 | 0.0 | 0.0 | 0.00 | 0.51 | 0.10 | 99 | 1010.0 |
| 20260506023603 | 2 | 0 | 0.0 | 0.0 | 0.00 | 0.51 | 0.10 | 99 | 1010.1 |
| 20260506023504 | 2 | 0 | 0.0 | 0.0 | 0.00 | 0.51 | 0.10 | 99 | 1010.1 |
| 20260506023403 | 2 | 0 | 0.0 | 0.0 | 0.00 | 0.51 | 0.10 | 99 | 1010.0 |
| 20260506023303 | 2 | 0 | 0.0 | 0.0 | 0.00 | 0.51 | 0.10 | 99 | 1010.3 |
| 20260506023204 | 2 | 0 | 0.0 | 0.0 | 0.00 | 0.51 | 0.10 | 99 | 1010.1 |
| 20260506023104 | 2 | 0 | 0.0 | 0.0 | 0.00 | 0.51 | 0.10 | 99 | 1010.2 |
| 20260506023004 | 2 | 0 | 0.0 | 0.0 | 0.00 | 0.51 | 0.10 | 99 | 1010.2 |
| 20260506022904 | 2 | 181 | 0.0 | 3.2 | 0.00 | 0.51 | 0.10 | 99 | 1010.2 |
| 20260506022703 | 2 | 181 | 0.0 | 3.2 | 0.00 | 0.51 | 0.10 | 99 | 1010.1 |
| 20260506022603 | 2 | 181 | 0.0 | 3.2 | 0.00 | 0.51 | 0.10 | 99 | 1010.3 |
| 20260506022504 | 2 | 181 | 0.0 | 3.2 | 0.00 | 0.51 | 0.10 | 99 | 1010.3 |
| 20260506022404 | 2 | 181 | 0.0 | 3.2 | 0.00 | 0.51 | 0.10 | 99 | 1010.2 |
| 20260506022305 | 2 | 181 | 0.0 | 3.2 | 0.00 | 0.51 | 0.10 | 99 | 1010.3 |
| 20260506022204 | 2 | 181 | 0.0 | 3.2 | 0.03 | 0.51 | 0.10 | 99 | 1010.5 |
| 20260506022103 | 2 | 181 | 0.0 | 3.2 | 0.03 | 0.51 | 0.10 | 99 | 1010.4 |
| 20260506022004 | 2 | 181 | 0.0 | 3.2 | 0.03 | 0.51 | 0.10 | 99 | 1010.2 |
| 20260506021904 | 2 | 181 | 0.0 | 3.2 | 0.03 | 0.51 | 0.10 | 99 | 1010.3 |
| 20260506021804 | 2 | 181 | 0.0 | 3.2 | 0.03 | 0.51 | 0.10 | 99 | 1010.4 |
| 20260506021504 | 2 | 181 | 0.0 | 3.2 | 0.03 | 0.51 | 0.10 | 99 | 1010.6 |
| 20260506021403 | 2 | 0 | 0.0 | 0.0 | 0.03 | 0.51 | 0.10 | 99 | 1010.4 |
| 20260506021203 | 2 | 0 | 0.0 | 0.0 | 0.03 | 0.51 | 0.10 | 99 | 1010.5 |
| 20260506021104 | 2 | 0 | 0.0 | 0.0 | 0.03 | 0.51 | 0.10 | 99 | 1010.3 |
| 20260506021004 | 2 | 0 | 0.0 | 0.0 | 0.03 | 0.51 | 0.10 | 99 | 1010.4 |
| 20260506020904 | 2 | 0 | 0.0 | 0.0 | 0.03 | 0.51 | 0.10 | 99 | 1010.4 |
| 20260506020804 | 2 | 0 | 0.0 | 0.0 | 0.03 | 0.51 | 0.10 | 99 | 1010.5 |
| 20260506020703 | 2 | 0 | 0.0 | 0.0 | 0.03 | 0.51 | 0.10 | 99 | 1010.5 |
| 20260506020604 | 2 | 0 | 0.0 | 0.0 | 0.03 | 0.51 | 0.10 | 99 | 1010.5 |
| 20260506020505 | 2 | 0 | 0.0 | 0.0 | 0.03 | 0.51 | 0.10 | 99 | 1010.3 |
| 20260506020404 | 2 | 0 | 0.0 | 0.0 | 0.03 | 0.51 | 0.10 | 99 | 1010.5 |
| 20260506020304 | 2 | 0 | 0.0 | 0.0 | 0.03 | 0.51 | 0.10 | 99 | 1010.5 |
| 20260506020203 | 2 | 0 | 0.0 | 0.0 | 0.03 | 0.51 | 0.10 | 99 | 1010.8 |
| 20260506020103 | 2 | 0 | 0.0 | 0.0 | 0.03 | 0.51 | 0.10 | 99 | 1010.4 |
| 20260506020004 | 2 | 0 | 0.0 | 0.0 | 0.03 | 0.51 | 0.10 | 99 | 1010.5 |
| 20260506015903 | 2 | 0 | 0.0 | 0.0 | 0.03 | 0.51 | 0.10 | 99 | 1010.3 |
| 20260506015804 | 2 | 0 | 0.0 | 0.0 | 0.03 | 0.51 | 0.10 | 99 | 1010.3 |
| 20260506015505 | 2 | 0 | 0.0 | 0.0 | 0.03 | 0.51 | 0.10 | 99 | 1010.2 |
| 20260506015404 | 2 | 0 | 0.0 | 0.0 | 0.03 | 0.51 | 0.10 | 99 | 1010.2 |
| 20260506015306 | 2 | 0 | 0.0 | 0.0 | 0.03 | 0.51 | 0.10 | 99 | 1010.3 |
| 20260506015203 | 2 | 0 | 0.0 | 0.0 | 0.03 | 0.51 | 0.10 | 99 | 1010.2 |
| 20260506015103 | 2 | 0 | 0.0 | 0.0 | 0.03 | 0.51 | 0.10 | 99 | 1010.1 |
| 20260506015004 | 2 | 0 | 0.0 | 0.0 | 0.03 | 0.51 | 0.10 | 99 | 1010.2 |
| 20260506014903 | 2 | 0 | 0.0 | 0.0 | 0.03 | 0.51 | 0.10 | 99 | 1010.3 |
| 20260506014804 | 2 | 0 | 0.0 | 0.0 | 0.03 | 0.51 | 0.10 | 99 | 1010.2 |
| 20260506014703 | 2 | 0 | 0.0 | 0.0 | 0.03 | 0.51 | 0.10 | 99 | 1010.3 |
| 20260506014603 | 2 | 0 | 0.0 | 0.0 | 0.03 | 0.51 | 0.10 | 99 | 1010.2 |
| 20260506014504 | 2 | 0 | 0.0 | 0.0 | 0.03 | 0.51 | 0.10 | 99 | 1010.3 |
| 20260506014303 | 2 | 0 | 0.0 | 0.0 | 0.03 | 0.51 | 0.10 | 99 | 1010.5 |
| 20260506014203 | 3 | 225 | 0.0 | 3.2 | 0.03 | 0.51 | 0.10 | 99 | 1010.5 |
| 20260506014104 | 3 | 225 | 0.0 | 3.2 | 0.03 | 0.51 | 0.10 | 99 | 1010.3 |
| 20260506014004 | 3 | 225 | 0.0 | 3.2 | 0.03 | 0.51 | 0.10 | 99 | 1010.3 |
| 20260506013904 | 2 | 225 | 0.0 | 3.2 | 0.03 | 0.51 | 0.10 | 99 | 1010.1 |
| 20260506013804 | 2 | 225 | 0.0 | 3.2 | 0.05 | 0.51 | 0.10 | 99 | 1010.4 |
| 20260506013703 | 2 | 225 | 0.0 | 3.2 | 0.05 | 0.51 | 0.10 | 99 | 1010.1 |
| 20260506013603 | 3 | 260 | 0.0 | 6.4 | 0.05 | 0.51 | 0.10 | 99 | 1009.9 |
| 20260506013504 | 3 | 275 | 1.6 | 6.4 | 0.05 | 0.51 | 0.10 | 99 | 1009.9 |
| 20260506013403 | 3 | 281 | 1.6 | 6.4 | 0.05 | 0.51 | 0.10 | 99 | 1010.1 |
| 20260506013303 | 3 | 279 | 1.6 | 6.4 | 0.05 | 0.51 | 0.10 | 99 | 1010.2 |
| 20260506013204 | 3 | 273 | 1.6 | 6.4 | 0.05 | 0.51 | 0.10 | 99 | 1010.2 |
| 20260506013104 | 3 | 275 | 3.2 | 6.4 | 0.05 | 0.51 | 0.10 | 99 | 1010.2 |
| 20260506013005 | 3 | 276 | 3.2 | 6.4 | 0.05 | 0.51 | 0.10 | 99 | 1010.3 |
| 20260506012904 | 3 | 277 | 3.2 | 6.4 | 0.05 | 0.51 | 0.10 | 99 | 1010.4 |
| 20260506012804 | 3 | 281 | 3.2 | 6.4 | 0.05 | 0.51 | 0.10 | 99 | 1010.3 |
| 20260506012603 | 3 | 283 | 3.2 | 6.4 | 0.05 | 0.51 | 0.10 | 99 | 1010.5 |
| 20260506012504 | 3 | 281 | 3.2 | 6.4 | 0.05 | 0.51 | 0.10 | 99 | 1010.3 |
| 20260506012404 | 3 | 279 | 1.6 | 6.4 | 0.05 | 0.51 | 0.10 | 99 | 1010.6 |
| 20260506012307 | 3 | 280 | 1.6 | 6.4 | 0.03 | 0.48 | 0.05 | 99 | 1010.7 |
| 20260506012203 | 3 | 287 | 1.6 | 6.4 | 0.03 | 0.48 | 0.05 | 99 | 1010.4 |
| 20260506012103 | 3 | 299 | 1.6 | 3.2 | 0.03 | 0.48 | 0.05 | 99 | 1010.6 |
| 20260506011903 | 3 | 303 | 0.0 | 3.2 | 0.03 | 0.48 | 0.05 | 99 | 1010.3 |
| 20260506011803 | 3 | 292 | 0.0 | 3.2 | 0.03 | 0.48 | 0.05 | 99 | 1010.5 |
| 20260506011703 | 3 | 0 | 0.0 | 0.0 | 0.03 | 0.48 | 0.05 | 99 | 1010.3 |
| 20260506011604 | 3 | 0 | 0.0 | 0.0 | 0.03 | 0.48 | 0.05 | 99 | 1010.3 |
| 20260506011505 | 3 | 0 | 0.0 | 0.0 | 0.03 | 0.48 | 0.05 | 99 | 1010.5 |
| 20260506011404 | 3 | 0 | 0.0 | 0.0 | 0.03 | 0.48 | 0.05 | 99 | 1010.3 |
| 20260506011304 | 3 | 0 | 0.0 | 0.0 | 0.03 | 0.48 | 0.05 | 99 | 1010.2 |
| 20260506011203 | 3 | 0 | 0.0 | 0.0 | 0.03 | 0.48 | 0.05 | 99 | 1010.5 |
| 20260506011004 | 3 | 0 | 0.0 | 0.0 | 0.03 | 0.48 | 0.05 | 99 | 1010.5 |
| 20260506010803 | 3 | 0 | 0.0 | 0.0 | 0.03 | 0.48 | 0.05 | 99 | 1010.6 |
| 20260506010703 | 3 | 0 | 0.0 | 0.0 | 0.03 | 0.48 | 0.05 | 99 | 1010.5 |
| 20260506010604 | 3 | 0 | 0.0 | 0.0 | 0.03 | 0.48 | 0.05 | 99 | 1010.5 |
| 20260506010504 | 3 | 0 | 0.0 | 0.0 | 0.03 | 0.48 | 0.05 | 99 | 1010.6 |
| 20260506010404 | 3 | 0 | 0.0 | 0.0 | 0.03 | 0.48 | 0.05 | 99 | 1010.6 |
| 20260506010304 | 3 | 0 | 0.0 | 0.0 | 0.03 | 0.48 | 0.05 | 99 | 1010.5 |
| 20260506010203 | 3 | 0 | 0.0 | 0.0 | 0.03 | 0.48 | 0.05 | 99 | 1010.6 |
| 20260506010103 | 3 | 0 | 0.0 | 0.0 | 0.03 | 0.48 | 0.05 | 99 | 1010.6 |
| 20260506010004 | 3 | 0 | 0.0 | 0.0 | 0.03 | 0.48 | 0.05 | 99 | 1010.6 |
| 20260506005903 | 3 | 0 | 0.0 | 0.0 | 0.03 | 0.48 | 0.05 | 99 | 1010.7 |
| 20260506005804 | 3 | 0 | 0.0 | 0.0 | 0.03 | 0.48 | 0.05 | 99 | 1010.7 |
| 20260506005604 | 3 | 0 | 0.0 | 0.0 | 0.03 | 0.48 | 0.05 | 99 | 1010.7 |
| 20260506005504 | 3 | 0 | 0.0 | 0.0 | 0.03 | 0.48 | 0.05 | 99 | 1010.6 |
| 20260506005305 | 3 | 0 | 0.0 | 0.0 | 0.03 | 0.48 | 0.05 | 99 | 1010.6 |
| 20260506005204 | 3 | 0 | 0.0 | 0.0 | 0.03 | 0.48 | 0.05 | 99 | 1010.8 |
| 20260506005103 | 3 | 292 | 0.0 | 3.2 | 0.03 | 0.48 | 0.05 | 99 | 1010.6 |
| 20260506005004 | 3 | 292 | 0.0 | 3.2 | 0.03 | 0.48 | 0.05 | 99 | 1010.5 |
| 20260506004805 | 3 | 292 | 0.0 | 3.2 | 0.03 | 0.48 | 0.05 | 99 | 1010.7 |
| 20260506004704 | 3 | 292 | 0.0 | 3.2 | 0.03 | 0.48 | 0.05 | 99 | 1010.8 |
| 20260506004604 | 3 | 292 | 0.0 | 3.2 | 0.03 | 0.48 | 0.05 | 99 | 1010.7 |
| 20260506004505 | 3 | 292 | 0.0 | 3.2 | 0.03 | 0.48 | 0.05 | 99 | 1010.6 |
| 20260506004404 | 3 | 292 | 0.0 | 3.2 | 0.03 | 0.48 | 0.05 | 99 | 1010.7 |
| 20260506004304 | 3 | 292 | 0.0 | 3.2 | 0.03 | 0.48 | 0.05 | 99 | 1010.8 |
| 20260506004203 | 3 | 292 | 0.0 | 3.2 | 0.03 | 0.48 | 0.05 | 99 | 1010.8 |
| 20260506004105 | 3 | 292 | 0.0 | 3.2 | 0.03 | 0.48 | 0.05 | 99 | 1010.8 |
| 20260506004004 | 3 | 292 | 0.0 | 3.2 | 0.03 | 0.48 | 0.05 | 99 | 1010.8 |
| 20260506003804 | 3 | 292 | 0.0 | 3.2 | 0.00 | 0.46 | 0.03 | 99 | 1011.0 |
| 20260506003704 | 3 | 292 | 0.0 | 3.2 | 0.00 | 0.46 | 0.03 | 99 | 1010.9 |
| 20260506003603 | 3 | 292 | 0.0 | 3.2 | 0.00 | 0.46 | 0.03 | 99 | 1010.7 |
| 20260506003504 | 3 | 292 | 0.0 | 3.2 | 0.00 | 0.46 | 0.03 | 99 | 1010.9 |
| 20260506003403 | 3 | 0 | 0.0 | 0.0 | 0.00 | 0.46 | 0.03 | 99 | 1010.9 |
| 20260506003203 | 3 | 0 | 0.0 | 0.0 | 0.00 | 0.46 | 0.03 | 99 | 1010.8 |
| 20260506003104 | 3 | 0 | 0.0 | 0.0 | 0.00 | 0.46 | 0.03 | 99 | 1010.8 |
| 20260506003004 | 3 | 0 | 0.0 | 0.0 | 0.00 | 0.46 | 0.03 | 99 | 1010.8 |
| 20260506002804 | 3 | 0 | 0.0 | 0.0 | 0.00 | 0.46 | 0.03 | 99 | 1010.9 |
| 20260506002604 | 3 | 0 | 0.0 | 0.0 | 0.00 | 0.46 | 0.03 | 99 | 1010.8 |
| 20260506002504 | 3 | 0 | 0.0 | 0.0 | 0.00 | 0.46 | 0.03 | 99 | 1010.7 |
| 20260506002404 | 3 | 0 | 0.0 | 0.0 | 0.00 | 0.46 | 0.03 | 99 | 1010.8 |
| 20260506002305 | 3 | 0 | 0.0 | 0.0 | 0.00 | 0.46 | 0.03 | 99 | 1010.8 |
| 20260506002203 | 3 | 0 | 0.0 | 0.0 | 0.00 | 0.46 | 0.03 | 99 | 1010.9 |
| 20260506002104 | 3 | 0 | 0.0 | 0.0 | 0.00 | 0.46 | 0.03 | 99 | 1010.8 |
| 20260506002004 | 3 | 0 | 0.0 | 0.0 | 0.00 | 0.46 | 0.03 | 99 | 1010.8 |
| 20260506001903 | 3 | 0 | 0.0 | 0.0 | 0.00 | 0.46 | 0.03 | 99 | 1010.8 |
| 20260506001704 | 3 | 0 | 0.0 | 0.0 | 0.00 | 0.46 | 0.03 | 99 | 1010.8 |
| 20260506001604 | 3 | 0 | 0.0 | 0.0 | 0.00 | 0.46 | 0.03 | 99 | 1010.8 |
| 20260506001504 | 3 | 0 | 0.0 | 0.0 | 0.00 | 0.46 | 0.03 | 99 | 1010.7 |
| 20260506001404 | 3 | 0 | 0.0 | 0.0 | 0.00 | 0.46 | 0.03 | 99 | 1011.0 |
| 20260506001303 | 3 | 0 | 0.0 | 0.0 | 0.00 | 0.46 | 0.03 | 99 | 1010.8 |
| 20260506001203 | 3 | 0 | 0.0 | 0.0 | 0.00 | 0.46 | 0.03 | 99 | 1010.7 |
| 20260506001103 | 3 | 0 | 0.0 | 0.0 | 0.00 | 0.46 | 0.03 | 99 | 1010.8 |
| 20260506001004 | 3 | 0 | 0.0 | 0.0 | 0.00 | 0.46 | 0.03 | 99 | 1010.7 |
| 20260506000804 | 3 | 0 | 0.0 | 0.0 | 0.00 | 0.46 | 0.03 | 99 | 1010.8 |
| 20260506000704 | 3 | 0 | 0.0 | 0.0 | 0.00 | 0.46 | 0.03 | 99 | 1010.9 |
| 20260506000603 | 3 | 0 | 0.0 | 0.0 | 0.00 | 0.46 | 0.03 | 99 | 1010.7 |
| 20260506000504 | 3 | 0 | 0.0 | 0.0 | 0.00 | 0.46 | 0.03 | 99 | 1010.7 |
| 20260506000403 | 3 | 0 | 0.0 | 0.0 | 0.00 | 0.46 | 0.03 | 99 | 1010.8 |
| 20260506000303 | 3 | 0 | 0.0 | 0.0 | 0.00 | 0.46 | 0.03 | 99 | 1010.9 |
| 20260506000205 | 3 | 0 | 0.0 | 0.0 | 0.00 | 0.46 | 0.03 | 99 | 1011.0 |
| 20260506000104 | 3 | 0 | 0.0 | 0.0 | 0.00 | 0.46 | 0.03 | 99 | 1010.9 |
| 20260506000005 | 3 | 0 | 0.0 | 0.0 | 0.00 | 0.46 | 0.03 | 99 | 1010.7 |
| 20260505235904 | 3 | 0 | 0.0 | 0.0 | 0.00 | 0.46 | 0.03 | 99 | 1010.8 |
| 20260505235803 | 3 | 0 | 0.0 | 0.0 | 0.00 | 0.46 | 0.03 | 99 | 1011.0 |
| 20260505235603 | 3 | 0 | 0.0 | 0.0 | 0.00 | 0.46 | 0.03 | 99 | 1010.8 |
| 20260505235504 | 2 | 0 | 0.0 | 0.0 | 0.00 | 0.46 | 0.03 | 99 | 1010.7 |
| 20260505235403 | 2 | 0 | 0.0 | 0.0 | 0.00 | 0.46 | 0.03 | 99 | 1010.8 |
| 20260505235305 | 3 | 0 | 0.0 | 0.0 | 0.00 | 0.46 | 0.03 | 99 | 1010.9 |
| 20260505235204 | 3 | 0 | 0.0 | 0.0 | 0.00 | 0.46 | 0.03 | 99 | 1010.9 |
| 20260505235103 | 3 | 0 | 0.0 | 0.0 | 0.00 | 0.46 | 0.03 | 99 | 1010.9 |
| 20260505235004 | 3 | 0 | 0.0 | 0.0 | 0.00 | 0.46 | 0.03 | 99 | 1011.1 |
| 20260505234904 | 3 | 0 | 0.0 | 0.0 | 0.03 | 0.46 | 0.03 | 99 | 1010.8 |
| 20260505234803 | 3 | 0 | 0.0 | 0.0 | 0.03 | 0.46 | 0.03 | 99 | 1010.9 |
| 20260505234703 | 3 | 0 | 0.0 | 0.0 | 0.03 | 0.46 | 0.03 | 99 | 1010.9 |
| 20260505234603 | 3 | 0 | 0.0 | 0.0 | 0.03 | 0.46 | 0.03 | 99 | 1010.7 |
| 20260505234504 | 3 | 0 | 0.0 | 0.0 | 0.03 | 0.46 | 0.03 | 99 | 1010.9 |
| 20260505234404 | 3 | 0 | 0.0 | 0.0 | 0.03 | 0.46 | 0.03 | 99 | 1011.0 |
| 20260505234304 | 3 | 0 | 0.0 | 0.0 | 0.03 | 0.46 | 0.03 | 99 | 1010.9 |
| 20260505234203 | 3 | 0 | 0.0 | 0.0 | 0.03 | 0.46 | 0.03 | 99 | 1011.1 |
| 20260505234103 | 3 | 0 | 0.0 | 0.0 | 0.03 | 0.46 | 0.03 | 99 | 1010.9 |
| 20260505233904 | 3 | 0 | 0.0 | 0.0 | 0.03 | 0.46 | 0.03 | 99 | 1010.8 |
| 20260505233803 | 3 | 0 | 0.0 | 0.0 | 0.03 | 0.46 | 0.03 | 99 | 1010.9 |
| 20260505233504 | 3 | 0 | 0.0 | 0.0 | 0.03 | 0.46 | 0.03 | 99 | 1010.9 |
| 20260505233303 | 3 | 0 | 0.0 | 0.0 | 0.03 | 0.46 | 0.03 | 99 | 1010.7 |
| 20260505233204 | 3 | 0 | 0.0 | 0.0 | 0.03 | 0.46 | 0.03 | 99 | 1010.9 |
| 20260505233104 | 3 | 0 | 0.0 | 0.0 | 0.03 | 0.46 | 0.03 | 99 | 1011.1 |
| 20260505233005 | 3 | 0 | 0.0 | 0.0 | 0.03 | 0.46 | 0.03 | 99 | 1010.9 |
| 20260505232904 | 3 | 0 | 0.0 | 0.0 | 0.03 | 0.46 | 0.03 | 99 | 1011.1 |
| 20260505232804 | 3 | 0 | 0.0 | 0.0 | 0.03 | 0.46 | 0.03 | 99 | 1011.1 |
| 20260505232603 | 3 | 0 | 0.0 | 0.0 | 0.03 | 0.46 | 0.03 | 99 | 1011.1 |
| 20260505232504 | 3 | 0 | 0.0 | 0.0 | 0.03 | 0.46 | 0.03 | 99 | 1011.1 |
| 20260505232305 | 3 | 0 | 0.0 | 0.0 | 0.03 | 0.46 | 0.03 | 99 | 1011.2 |
| 20260505232204 | 3 | 0 | 0.0 | 0.0 | 0.03 | 0.46 | 0.03 | 99 | 1011.0 |
| 20260505232005 | 3 | 0 | 0.0 | 0.0 | 0.03 | 0.46 | 0.03 | 99 | 1011.2 |
| 20260505231804 | 3 | 0 | 0.0 | 0.0 | 0.03 | 0.46 | 0.03 | 99 | 1011.4 |
| 20260505231703 | 3 | 0 | 0.0 | 0.0 | 0.03 | 0.46 | 0.03 | 99 | 1011.3 |
| 20260505231603 | 3 | 0 | 0.0 | 0.0 | 0.03 | 0.46 | 0.03 | 99 | 1011.4 |
| 20260505231504 | 3 | 0 | 0.0 | 0.0 | 0.03 | 0.46 | 0.03 | 99 | 1011.3 |
| 20260505231403 | 3 | 0 | 0.0 | 0.0 | 0.03 | 0.46 | 0.03 | 99 | 1011.2 |
| 20260505231303 | 3 | 0 | 0.0 | 0.0 | 0.03 | 0.46 | 0.03 | 99 | 1011.4 |
| 20260505231204 | 3 | 0 | 0.0 | 0.0 | 0.03 | 0.46 | 0.03 | 99 | 1011.3 |
| 20260505231103 | 3 | 0 | 0.0 | 0.0 | 0.03 | 0.46 | 0.03 | 99 | 1011.3 |
| 20260505231004 | 3 | 0 | 0.0 | 0.0 | 0.03 | 0.46 | 0.03 | 99 | 1011.2 |
| 20260505230903 | 3 | 0 | 0.0 | 0.0 | 0.03 | 0.46 | 0.03 | 99 | 1011.0 |
| 20260505230703 | 3 | 0 | 0.0 | 0.0 | 0.03 | 0.46 | 0.03 | 99 | 1011.2 |
| 20260505230603 | 3 | 0 | 0.0 | 0.0 | 0.03 | 0.46 | 0.03 | 99 | 1011.2 |
| 20260505230504 | 3 | 0 | 0.0 | 0.0 | 0.03 | 0.46 | 0.03 | 99 | 1011.3 |
| 20260505230403 | 3 | 0 | 0.0 | 0.0 | 0.03 | 0.46 | 0.03 | 99 | 1011.1 |
| 20260505230304 | 3 | 0 | 0.0 | 0.0 | 0.03 | 0.46 | 0.03 | 99 | 1011.1 |
| 20260505230204 | 3 | 0 | 0.0 | 0.0 | 0.03 | 0.46 | 0.03 | 99 | 1011.0 |
| 20260505230004 | 3 | 0 | 0.0 | 0.0 | 0.03 | 0.46 | 0.03 | 99 | 1011.1 |
| 20260505225903 | 3 | 0 | 0.0 | 0.0 | 0.03 | 0.46 | 0.03 | 99 | 1011.0 |
| 20260505225803 | 3 | 0 | 0.0 | 0.0 | 0.03 | 0.46 | 0.03 | 99 | 1011.1 |
| 20260505225704 | 3 | 0 | 0.0 | 0.0 | 0.03 | 0.46 | 0.03 | 99 | 1011.2 |
| 20260505225404 | 3 | 0 | 0.0 | 0.0 | 0.03 | 0.46 | 0.03 | 99 | 1011.3 |
| 20260505225305 | 3 | 0 | 0.0 | 0.0 | 0.03 | 0.46 | 0.03 | 99 | 1011.3 |
| 20260505225203 | 3 | 0 | 0.0 | 0.0 | 0.03 | 0.46 | 0.03 | 99 | 1011.1 |
| 20260505225103 | 3 | 0 | 0.0 | 0.0 | 0.03 | 0.46 | 0.03 | 99 | 1011.0 |
| 20260505225004 | 3 | 0 | 0.0 | 0.0 | 0.00 | 0.43 | 0.03 | 99 | 1011.1 |
| 20260505224904 | 3 | 0 | 0.0 | 0.0 | 0.00 | 0.43 | 0.00 | 99 | 1011.2 |
| 20260505224803 | 3 | 0 | 0.0 | 0.0 | 0.00 | 0.43 | 0.00 | 99 | 1011.2 |
| 20260505224703 | 3 | 0 | 0.0 | 0.0 | 0.00 | 0.43 | 0.00 | 99 | 1011.2 |
| 20260505224504 | 3 | 0 | 0.0 | 0.0 | 0.00 | 0.43 | 0.00 | 99 | 1011.1 |
| 20260505224403 | 3 | 0 | 0.0 | 0.0 | 0.00 | 0.43 | 0.00 | 99 | 1011.4 |
| 20260505224203 | 3 | 0 | 0.0 | 0.0 | 0.00 | 0.43 | 0.00 | 99 | 1011.4 |
| 20260505224104 | 3 | 0 | 0.0 | 0.0 | 0.00 | 0.43 | 0.00 | 99 | 1011.3 |
| 20260505224004 | 3 | 0 | 0.0 | 0.0 | 0.00 | 0.43 | 0.00 | 99 | 1011.3 |
| 20260505223904 | 3 | 0 | 0.0 | 0.0 | 0.00 | 0.43 | 0.00 | 99 | 1011.6 |
| 20260505223804 | 3 | 0 | 0.0 | 0.0 | 0.00 | 0.43 | 0.00 | 99 | 1011.3 |
| 20260505223703 | 3 | 0 | 0.0 | 0.0 | 0.00 | 0.43 | 0.00 | 99 | 1011.5 |
| 20260505223603 | 3 | 0 | 0.0 | 0.0 | 0.00 | 0.43 | 0.00 | 99 | 1011.5 |
| 20260505223504 | 3 | 0 | 0.0 | 0.0 | 0.00 | 0.43 | 0.00 | 99 | 1011.2 |
| 20260505223403 | 3 | 0 | 0.0 | 0.0 | 0.00 | 0.43 | 0.00 | 99 | 1011.4 |
| 20260505223303 | 3 | 0 | 0.0 | 0.0 | 0.00 | 0.43 | 0.00 | 99 | 1011.4 |
| 20260505223204 | 3 | 0 | 0.0 | 0.0 | 0.00 | 0.43 | 0.00 | 99 | 1011.5 |
| 20260505223104 | 3 | 0 | 0.0 | 0.0 | 0.00 | 0.43 | 0.00 | 99 | 1011.6 |
| 20260505223005 | 3 | 0 | 0.0 | 0.0 | 0.00 | 0.43 | 0.00 | 99 | 1011.6 |
| 20260505222904 | 3 | 0 | 0.0 | 0.0 | 0.00 | 0.43 | 0.00 | 99 | 1011.6 |
| 20260505222803 | 3 | 0 | 0.0 | 0.0 | 0.00 | 0.43 | 0.00 | 99 | 1011.6 |
| 20260505222703 | 3 | 0 | 0.0 | 0.0 | 0.00 | 0.43 | 0.00 | 99 | 1011.6 |
| 20260505222603 | 3 | 0 | 0.0 | 0.0 | 0.00 | 0.43 | 0.00 | 99 | 1011.6 |
| 20260505222504 | 3 | 0 | 0.0 | 0.0 | 0.00 | 0.43 | 0.00 | 99 | 1011.5 |
| 20260505222403 | 3 | 0 | 0.0 | 0.0 | 0.00 | 0.43 | 0.00 | 99 | 1011.5 |
| 20260505222305 | 3 | 0 | 0.0 | 0.0 | 0.00 | 0.43 | 0.00 | 99 | 1011.4 |
| 20260505222104 | 3 | 135 | 0.0 | 3.2 | 0.00 | 0.43 | 0.00 | 99 | 1011.7 |
| 20260505222004 | 3 | 135 | 0.0 | 3.2 | 0.00 | 0.43 | 0.00 | 99 | 1011.5 |
| 20260505221903 | 3 | 135 | 0.0 | 3.2 | 0.00 | 0.43 | 0.00 | 99 | 1011.6 |
| 20260505221803 | 3 | 140 | 0.0 | 3.2 | 0.00 | 0.43 | 0.00 | 99 | 1011.5 |
| 20260505221703 | 3 | 143 | 1.6 | 3.2 | 0.00 | 0.43 | 0.00 | 99 | 1011.4 |
| 20260505221603 | 3 | 144 | 1.6 | 3.2 | 0.00 | 0.43 | 0.00 | 99 | 1011.5 |
| 20260505221504 | 3 | 144 | 1.6 | 3.2 | 0.00 | 0.43 | 0.00 | 99 | 1011.6 |
| 20260505221404 | 3 | 144 | 1.6 | 3.2 | 0.00 | 0.43 | 0.00 | 99 | 1011.5 |
| 20260505221304 | 3 | 144 | 1.6 | 3.2 | 0.00 | 0.43 | 0.00 | 99 | 1011.5 |
| 20260505221103 | 3 | 150 | 0.0 | 3.2 | 0.00 | 0.43 | 0.00 | 99 | 1011.5 |
| 20260505221004 | 3 | 150 | 0.0 | 3.2 | 0.00 | 0.43 | 0.00 | 99 | 1011.6 |
| 20260505220904 | 3 | 158 | 0.0 | 3.2 | 0.00 | 0.43 | 0.00 | 99 | 1011.4 |
| 20260505220804 | 3 | 158 | 0.0 | 3.2 | 0.00 | 0.43 | 0.00 | 99 | 1011.5 |
| 20260505220703 | 3 | 158 | 0.0 | 3.2 | 0.00 | 0.43 | 0.00 | 99 | 1011.7 |
| 20260505220603 | 3 | 0 | 0.0 | 0.0 | 0.00 | 0.43 | 0.00 | 99 | 1011.5 |
| 20260505220504 | 3 | 0 | 0.0 | 0.0 | 0.00 | 0.43 | 0.00 | 99 | 1011.7 |
| 20260505220403 | 3 | 0 | 0.0 | 0.0 | 0.00 | 0.43 | 0.00 | 99 | 1011.6 |
| 20260505220303 | 3 | 0 | 0.0 | 0.0 | 0.00 | 0.43 | 0.00 | 99 | 1011.7 |
| 20260505220204 | 3 | 158 | 0.0 | 3.2 | 0.00 | 0.43 | 0.00 | 99 | 1011.7 |
| 20260505220103 | 3 | 158 | 0.0 | 3.2 | 0.00 | 0.43 | 0.00 | 99 | 1011.5 |
| 20260505220006 | 3 | 158 | 0.0 | 3.2 | 0.00 | 0.43 | 0.00 | 99 | 1011.7 |
| 20260505215903 | 3 | 158 | 0.0 | 3.2 | 0.00 | 0.43 | 0.43 | 99 | 1011.5 |
| 20260505215703 | 3 | 158 | 0.0 | 3.2 | 0.00 | 0.43 | 0.43 | 99 | 1011.5 |
| 20260505215604 | 3 | 158 | 0.0 | 3.2 | 0.00 | 0.43 | 0.43 | 99 | 1011.7 |
| 20260505215505 | 3 | 158 | 0.0 | 3.2 | 0.00 | 0.43 | 0.43 | 99 | 1011.7 |
| 20260505215305 | 3 | 158 | 0.0 | 3.2 | 0.00 | 0.43 | 0.43 | 99 | 1011.7 |
| 20260505215203 | 3 | 158 | 0.0 | 3.2 | 0.00 | 0.43 | 0.43 | 99 | 1011.7 |
| 20260505215103 | 3 | 0 | 0.0 | 0.0 | 0.00 | 0.43 | 0.43 | 99 | 1011.8 |
| 20260505215004 | 3 | 0 | 0.0 | 0.0 | 0.00 | 0.43 | 0.43 | 99 | 1011.7 |
| 20260505214903 | 3 | 0 | 0.0 | 0.0 | 0.00 | 0.43 | 0.43 | 99 | 1011.7 |
| 20260505214804 | 3 | 158 | 0.0 | 3.2 | 0.00 | 0.43 | 0.43 | 99 | 1011.7 |
| 20260505214603 | 3 | 158 | 0.0 | 3.2 | 0.00 | 0.43 | 0.43 | 99 | 1011.9 |
| 20260505214504 | 3 | 158 | 0.0 | 3.2 | 0.00 | 0.43 | 0.43 | 99 | 1011.7 |
| 20260505214403 | 3 | 158 | 0.0 | 3.2 | 0.00 | 0.43 | 0.43 | 99 | 1011.7 |
| 20260505214303 | 3 | 158 | 0.0 | 3.2 | 0.00 | 0.43 | 0.43 | 99 | 1011.8 |
| 20260505214203 | 3 | 158 | 0.0 | 3.2 | 0.00 | 0.43 | 0.43 | 99 | 1011.8 |
| 20260505214103 | 3 | 158 | 0.0 | 3.2 | 0.00 | 0.43 | 0.43 | 99 | 1011.9 |
| 20260505214004 | 3 | 158 | 0.0 | 3.2 | 0.00 | 0.43 | 0.43 | 99 | 1011.7 |
| 20260505213904 | 3 | 158 | 0.0 | 3.2 | 0.00 | 0.43 | 0.43 | 99 | 1012.0 |
| 20260505213804 | 3 | 158 | 0.0 | 3.2 | 0.00 | 0.43 | 0.43 | 99 | 1011.7 |
| 20260505213603 | 3 | 167 | 0.0 | 3.2 | 0.00 | 0.43 | 0.43 | 99 | 1011.9 |
| 20260505213504 | 3 | 167 | 0.0 | 3.2 | 0.00 | 0.43 | 0.43 | 99 | 1011.8 |
| 20260505213403 | 3 | 167 | 0.0 | 3.2 | 0.03 | 0.43 | 0.43 | 99 | 1012.0 |
| 20260505213303 | 3 | 167 | 0.0 | 3.2 | 0.03 | 0.43 | 0.43 | 99 | 1012.0 |
| 20260505213203 | 3 | 164 | 0.0 | 3.2 | 0.03 | 0.43 | 0.43 | 99 | 1012.0 |
| 20260505213006 | 3 | 163 | 0.0 | 3.2 | 0.03 | 0.43 | 0.43 | 99 | 1012.1 |
| 20260505212905 | 3 | 163 | 0.0 | 3.2 | 0.03 | 0.43 | 0.43 | 99 | 1011.9 |
| 20260505212806 | 3 | 162 | 1.6 | 3.2 | 0.03 | 0.43 | 0.43 | 99 | 1011.9 |
| 20260505212705 | 3 | 159 | 0.0 | 3.2 | 0.03 | 0.43 | 0.43 | 99 | 1012.0 |
| 20260505212605 | 3 | 158 | 1.6 | 3.2 | 0.03 | 0.43 | 0.43 | 99 | 1011.9 |
| 20260505212506 | 3 | 158 | 1.6 | 3.2 | 0.03 | 0.43 | 0.43 | 99 | 1012.0 |
| 20260505212405 | 3 | 158 | 1.6 | 3.2 | 0.03 | 0.43 | 0.43 | 99 | 1011.8 |
| 20260505212306 | 3 | 158 | 1.6 | 3.2 | 0.03 | 0.43 | 0.43 | 99 | 1011.9 |
| 20260505212205 | 3 | 158 | 1.6 | 3.2 | 0.03 | 0.43 | 0.43 | 99 | 1012.0 |
| 20260505212105 | 3 | 158 | 0.0 | 3.2 | 0.03 | 0.43 | 0.43 | 99 | 1012.0 |
| 20260505212006 | 3 | 158 | 1.6 | 3.2 | 0.03 | 0.43 | 0.43 | 99 | 1011.9 |
| 20260505211906 | 3 | 158 | 1.6 | 3.2 | 0.03 | 0.43 | 0.43 | 99 | 1012.0 |
| 20260505211806 | 3 | 158 | 0.0 | 3.2 | 0.03 | 0.43 | 0.43 | 99 | 1012.0 |
| 20260505211705 | 3 | 158 | 0.0 | 3.2 | 0.03 | 0.43 | 0.43 | 99 | 1012.1 |
| 20260505211305 | 3 | 0 | 0.0 | 0.0 | 0.03 | 0.43 | 0.43 | 99 | 1012.1 |
| 20260505211205 | 3 | 0 | 0.0 | 0.0 | 0.03 | 0.43 | 0.43 | 99 | 1012.1 |
| 20260505211105 | 3 | 0 | 0.0 | 0.0 | 0.03 | 0.43 | 0.43 | 99 | 1012.1 |
| 20260505211006 | 3 | 0 | 0.0 | 0.0 | 0.03 | 0.43 | 0.43 | 99 | 1012.1 |
| 20260505210905 | 3 | 158 | 0.0 | 3.2 | 0.03 | 0.43 | 0.43 | 99 | 1012.1 |
| 20260505210806 | 3 | 158 | 0.0 | 3.2 | 0.03 | 0.43 | 0.43 | 99 | 1012.0 |
| 20260505210705 | 3 | 160 | 0.0 | 3.2 | 0.03 | 0.43 | 0.43 | 99 | 1011.9 |
| 20260505210605 | 3 | 163 | 1.6 | 3.2 | 0.03 | 0.43 | 0.43 | 99 | 1012.3 |
| 20260505210506 | 3 | 162 | 1.6 | 3.2 | 0.03 | 0.43 | 0.43 | 99 | 1012.1 |
| 20260505210405 | 3 | 162 | 1.6 | 3.2 | 0.03 | 0.43 | 0.43 | 99 | 1012.2 |
| 20260505210305 | 3 | 161 | 1.6 | 3.2 | 0.03 | 0.43 | 0.43 | 99 | 1012.1 |
| 20260505210206 | 3 | 161 | 1.6 | 3.2 | 0.03 | 0.43 | 0.43 | 99 | 1012.0 |
| 20260505210106 | 3 | 161 | 1.6 | 3.2 | 0.03 | 0.43 | 0.43 | 99 | 1012.2 |
| 20260505210006 | 3 | 161 | 1.6 | 3.2 | 0.03 | 0.43 | 0.43 | 99 | 1012.2 |
| 20260505205906 | 3 | 162 | 1.6 | 3.2 | 0.03 | 0.43 | 0.43 | 99 | 1012.0 |
| 20260505205805 | 3 | 163 | 1.6 | 3.2 | 0.03 | 0.43 | 0.43 | 99 | 1012.3 |
| 20260505205705 | 3 | 164 | 0.0 | 3.2 | 0.03 | 0.43 | 0.43 | 99 | 1012.1 |
| 20260505205506 | 3 | 158 | 0.0 | 3.2 | 0.03 | 0.43 | 0.43 | 99 | 1012.1 |
| 20260505205405 | 3 | 158 | 0.0 | 3.2 | 0.03 | 0.43 | 0.43 | 99 | 1012.1 |
| 20260505205305 | 3 | 158 | 0.0 | 3.2 | 0.03 | 0.43 | 0.43 | 99 | 1012.1 |
| 20260505205206 | 3 | 158 | 0.0 | 3.2 | 0.03 | 0.43 | 0.43 | 99 | 1012.1 |
| 20260505205106 | 3 | 158 | 0.0 | 3.2 | 0.03 | 0.43 | 0.43 | 99 | 1012.2 |
| 20260505204905 | 3 | 158 | 1.6 | 3.2 | 0.03 | 0.43 | 0.43 | 99 | 1012.0 |
| 20260505204805 | 3 | 158 | 1.6 | 3.2 | 0.03 | 0.43 | 0.43 | 99 | 1012.0 |
| 20260505204705 | 3 | 158 | 1.6 | 3.2 | 0.03 | 0.43 | 0.43 | 99 | 1012.1 |
| 20260505204506 | 3 | 158 | 0.0 | 3.2 | 0.03 | 0.43 | 0.43 | 99 | 1012.1 |
| 20260505204405 | 3 | 158 | 0.0 | 3.2 | 0.03 | 0.43 | 0.43 | 99 | 1012.2 |
| 20260505204306 | 3 | 158 | 0.0 | 3.2 | 0.03 | 0.43 | 0.43 | 99 | 1012.2 |
| 20260505204205 | 3 | 158 | 0.0 | 3.2 | 0.03 | 0.43 | 0.43 | 99 | 1012.1 |
| 20260505204105 | 3 | 158 | 0.0 | 3.2 | 0.05 | 0.43 | 0.43 | 99 | 1012.0 |
| 20260505204007 | 3 | 0 | 0.0 | 0.0 | 0.05 | 0.43 | 0.43 | 99 | 1012.1 |
| 20260505203905 | 3 | 0 | 0.0 | 0.0 | 0.05 | 0.43 | 0.43 | 99 | 1012.2 |
| 20260505203806 | 3 | 0 | 0.0 | 0.0 | 0.05 | 0.43 | 0.43 | 99 | 1012.0 |
| 20260505203706 | 3 | 0 | 0.0 | 0.0 | 0.05 | 0.43 | 0.43 | 99 | 1012.2 |
| 20260505203606 | 3 | 0 | 0.0 | 0.0 | 0.10 | 0.43 | 0.43 | 99 | 1011.8 |
| 20260505203506 | 3 | 0 | 0.0 | 0.0 | 0.10 | 0.43 | 0.43 | 99 | 1012.0 |
| 20260505203406 | 3 | 0 | 0.0 | 0.0 | 0.05 | 0.38 | 0.38 | 99 | 1012.3 |
| 20260505203305 | 3 | 0 | 0.0 | 0.0 | 0.05 | 0.38 | 0.38 | 99 | 1012.2 |
| 20260505203105 | 3 | 0 | 0.0 | 0.0 | 0.05 | 0.38 | 0.38 | 99 | 1012.2 |
| 20260505203006 | 3 | 0 | 0.0 | 0.0 | 0.05 | 0.38 | 0.38 | 99 | 1012.2 |
| 20260505202905 | 3 | 0 | 0.0 | 0.0 | 0.05 | 0.38 | 0.38 | 99 | 1012.3 |
| 20260505202805 | 3 | 0 | 0.0 | 0.0 | 0.05 | 0.38 | 0.38 | 99 | 1012.1 |
| 20260505202506 | 3 | 0 | 0.0 | 0.0 | 0.05 | 0.38 | 0.38 | 99 | 1012.3 |
| 20260505202405 | 3 | 0 | 0.0 | 0.0 | 0.05 | 0.38 | 0.38 | 99 | 1012.0 |
| 20260505202206 | 3 | 0 | 0.0 | 0.0 | 0.05 | 0.38 | 0.38 | 99 | 1011.9 |
| 20260505202105 | 3 | 0 | 0.0 | 0.0 | 0.05 | 0.38 | 0.38 | 99 | 1012.1 |
| 20260505201906 | 3 | 0 | 0.0 | 0.0 | 0.05 | 0.38 | 0.38 | 99 | 1012.2 |
| 20260505201805 | 3 | 0 | 0.0 | 0.0 | 0.05 | 0.38 | 0.38 | 99 | 1012.1 |
| 20260505201705 | 3 | 0 | 0.0 | 0.0 | 0.05 | 0.38 | 0.38 | 99 | 1012.1 |
| 20260505201605 | 3 | 0 | 0.0 | 0.0 | 0.05 | 0.38 | 0.38 | 99 | 1012.1 |
| 20260505201405 | 3 | 0 | 0.0 | 0.0 | 0.05 | 0.38 | 0.38 | 99 | 1012.1 |
| 20260505201306 | 3 | 0 | 0.0 | 0.0 | 0.05 | 0.38 | 0.38 | 99 | 1012.1 |
| 20260505201205 | 3 | 0 | 0.0 | 0.0 | 0.05 | 0.38 | 0.38 | 99 | 1012.2 |
| 20260505201105 | 3 | 0 | 0.0 | 0.0 | 0.05 | 0.38 | 0.38 | 99 | 1012.2 |
| 20260505200905 | 3 | 0 | 0.0 | 0.0 | 0.05 | 0.38 | 0.38 | 99 | 1012.1 |
| 20260505200805 | 3 | 0 | 0.0 | 0.0 | 0.05 | 0.38 | 0.38 | 99 | 1012.2 |
| 20260505200605 | 3 | 0 | 0.0 | 0.0 | 0.05 | 0.38 | 0.38 | 99 | 1012.2 |
| 20260505200405 | 3 | 0 | 0.0 | 0.0 | 0.05 | 0.38 | 0.38 | 99 | 1012.3 |
| 20260505200306 | 3 | 0 | 0.0 | 0.0 | 0.05 | 0.38 | 0.38 | 99 | 1012.3 |
| 20260505200205 | 3 | 0 | 0.0 | 0.0 | 0.05 | 0.38 | 0.38 | 99 | 1012.2 |
| 20260505200105 | 3 | 0 | 0.0 | 0.0 | 0.05 | 0.38 | 0.38 | 99 | 1012.2 |
| 20260505200006 | 3 | 0 | 0.0 | 0.0 | 0.05 | 0.38 | 0.38 | 99 | 1012.2 |
| 20260505195905 | 3 | 0 | 0.0 | 0.0 | 0.05 | 0.38 | 0.38 | 99 | 1012.2 |
| 20260505195805 | 3 | 0 | 0.0 | 0.0 | 0.05 | 0.38 | 0.38 | 99 | 1012.0 |
| 20260505195705 | 3 | 0 | 0.0 | 0.0 | 0.05 | 0.38 | 0.38 | 99 | 1012.1 |
| 20260505195606 | 3 | 0 | 0.0 | 0.0 | 0.05 | 0.38 | 0.38 | 99 | 1012.0 |
| 20260505195505 | 3 | 0 | 0.0 | 0.0 | 0.05 | 0.38 | 0.38 | 99 | 1012.1 |
| 20260505195406 | 3 | 0 | 0.0 | 0.0 | 0.05 | 0.38 | 0.38 | 99 | 1011.9 |
| 20260505195305 | 3 | 0 | 0.0 | 0.0 | 0.05 | 0.38 | 0.38 | 99 | 1012.1 |
| 20260505195205 | 3 | 0 | 0.0 | 0.0 | 0.05 | 0.38 | 0.38 | 99 | 1012.1 |
| 20260505195006 | 3 | 0 | 0.0 | 0.0 | 0.05 | 0.38 | 0.38 | 99 | 1012.0 |
| 20260505194905 | 3 | 0 | 0.0 | 0.0 | 0.05 | 0.38 | 0.38 | 99 | 1012.1 |
| 20260505194506 | 3 | 0 | 0.0 | 0.0 | 0.05 | 0.38 | 0.38 | 99 | 1011.9 |
| 20260505194406 | 3 | 0 | 0.0 | 0.0 | 0.05 | 0.38 | 0.38 | 99 | 1012.1 |
| 20260505194306 | 3 | 0 | 0.0 | 0.0 | 0.05 | 0.38 | 0.38 | 99 | 1012.0 |
| 20260505194205 | 3 | 0 | 0.0 | 0.0 | 0.03 | 0.36 | 0.36 | 99 | 1012.0 |
| 20260505193905 | 3 | 0 | 0.0 | 0.0 | 0.03 | 0.36 | 0.36 | 99 | 1012.1 |
| 20260505193805 | 4 | 0 | 0.0 | 0.0 | 0.03 | 0.36 | 0.36 | 99 | 1012.0 |
| 20260505193705 | 4 | 0 | 0.0 | 0.0 | 0.00 | 0.33 | 0.33 | 99 | 1012.0 |
| 20260505193606 | 3 | 0 | 0.0 | 0.0 | 0.00 | 0.33 | 0.33 | 99 | 1012.0 |
| 20260505193506 | 3 | 0 | 0.0 | 0.0 | 0.00 | 0.33 | 0.33 | 99 | 1012.2 |
| 20260505193406 | 3 | 0 | 0.0 | 0.0 | 0.00 | 0.33 | 0.33 | 99 | 1012.0 |
| 20260505193305 | 3 | 0 | 0.0 | 0.0 | 0.00 | 0.33 | 0.33 | 99 | 1012.0 |
| 20260505193205 | 3 | 0 | 0.0 | 0.0 | 0.00 | 0.33 | 0.33 | 99 | 1012.3 |
| 20260505193105 | 3 | 0 | 0.0 | 0.0 | 0.00 | 0.33 | 0.33 | 99 | 1011.9 |
| 20260505193007 | 3 | 0 | 0.0 | 0.0 | 0.00 | 0.33 | 0.33 | 99 | 1012.1 |
| 20260505192905 | 3 | 0 | 0.0 | 0.0 | 0.00 | 0.33 | 0.33 | 99 | 1012.1 |
| 20260505192805 | 3 | 0 | 0.0 | 0.0 | 0.00 | 0.33 | 0.33 | 99 | 1011.8 |
| 20260505192606 | 3 | 0 | 0.0 | 0.0 | 0.00 | 0.33 | 0.33 | 99 | 1011.9 |
| 20260505192505 | 3 | 0 | 0.0 | 0.0 | 0.00 | 0.33 | 0.33 | 99 | 1011.9 |
| 20260505192406 | 3 | 0 | 0.0 | 0.0 | 0.00 | 0.33 | 0.33 | 99 | 1012.1 |
| 20260505192306 | 3 | 0 | 0.0 | 0.0 | 0.00 | 0.33 | 0.33 | 99 | 1012.0 |
| 20260505192205 | 3 | 0 | 0.0 | 0.0 | 0.00 | 0.33 | 0.33 | 99 | 1012.0 |
| 20260505192006 | 3 | 0 | 0.0 | 0.0 | 0.00 | 0.33 | 0.33 | 99 | 1012.0 |
| 20260505191905 | 3 | 0 | 0.0 | 0.0 | 0.00 | 0.33 | 0.33 | 99 | 1011.8 |
| 20260505191806 | 3 | 0 | 0.0 | 0.0 | 0.00 | 0.33 | 0.33 | 99 | 1012.0 |
| 20260505191605 | 3 | 0 | 0.0 | 0.0 | 0.00 | 0.33 | 0.33 | 99 | 1012.1 |
| 20260505191505 | 3 | 0 | 0.0 | 0.0 | 0.00 | 0.33 | 0.33 | 99 | 1012.0 |
| 20260505191406 | 3 | 0 | 0.0 | 0.0 | 0.00 | 0.33 | 0.33 | 99 | 1011.8 |
| 20260505191205 | 3 | 0 | 0.0 | 0.0 | 0.00 | 0.33 | 0.33 | 99 | 1011.9 |
| 20260505191105 | 3 | 0 | 0.0 | 0.0 | 0.00 | 0.33 | 0.33 | 99 | 1012.0 |
| 20260505191006 | 3 | 0 | 0.0 | 0.0 | 0.00 | 0.33 | 0.33 | 99 | 1011.9 |
| 20260505190805 | 3 | 0 | 0.0 | 0.0 | 0.00 | 0.33 | 0.33 | 99 | 1011.8 |
| 20260505190705 | 3 | 0 | 0.0 | 0.0 | 0.00 | 0.33 | 0.33 | 99 | 1012.0 |
| 20260505190406 | 3 | 0 | 0.0 | 0.0 | 0.00 | 0.33 | 0.33 | 99 | 1011.8 |
| 20260505190306 | 3 | 0 | 0.0 | 0.0 | 0.00 | 0.33 | 0.33 | 99 | 1011.9 |
| 20260505190105 | 3 | 0 | 0.0 | 0.0 | 0.00 | 0.33 | 0.33 | 99 | 1011.8 |
| 20260505190006 | 3 | 0 | 0.0 | 0.0 | 0.00 | 0.33 | 0.33 | 99 | 1011.9 |
| 20260505185905 | 3 | 0 | 0.0 | 0.0 | 0.00 | 0.33 | 0.33 | 99 | 1011.7 |
| 20260505185805 | 3 | 0 | 0.0 | 0.0 | 0.00 | 0.33 | 0.33 | 99 | 1011.7 |
| 20260505185705 | 3 | 0 | 0.0 | 0.0 | 0.00 | 0.33 | 0.33 | 99 | 1011.7 |
| 20260505185606 | 3 | 0 | 0.0 | 0.0 | 0.00 | 0.33 | 0.33 | 99 | 1011.8 |
| 20260505185505 | 3 | 0 | 0.0 | 0.0 | 0.00 | 0.33 | 0.33 | 99 | 1011.8 |
| 20260505185406 | 3 | 0 | 0.0 | 0.0 | 0.00 | 0.33 | 0.33 | 99 | 1011.6 |
| 20260505185305 | 3 | 0 | 0.0 | 0.0 | 0.00 | 0.33 | 0.33 | 99 | 1011.9 |
| 20260505185205 | 3 | 0 | 0.0 | 0.0 | 0.00 | 0.33 | 0.33 | 99 | 1011.8 |
| 20260505185105 | 3 | 0 | 0.0 | 0.0 | 0.00 | 0.33 | 0.33 | 99 | 1011.8 |
| 20260505185006 | 3 | 0 | 0.0 | 0.0 | 0.00 | 0.33 | 0.33 | 99 | 1011.9 |
| 20260505184905 | 3 | 0 | 0.0 | 0.0 | 0.00 | 0.33 | 0.33 | 99 | 1011.8 |
| 20260505184805 | 3 | 0 | 0.0 | 0.0 | 0.00 | 0.33 | 0.33 | 99 | 1011.8 |
| 20260505184706 | 3 | 0 | 0.0 | 0.0 | 0.00 | 0.33 | 0.33 | 99 | 1011.6 |
| 20260505184605 | 3 | 0 | 0.0 | 0.0 | 0.00 | 0.33 | 0.33 | 99 | 1011.7 |
| 20260505184506 | 3 | 0 | 0.0 | 0.0 | 0.00 | 0.33 | 0.33 | 99 | 1011.6 |
| 20260505184405 | 3 | 0 | 0.0 | 0.0 | 0.00 | 0.33 | 0.33 | 99 | 1011.7 |
| 20260505184305 | 3 | 0 | 0.0 | 0.0 | 0.00 | 0.33 | 0.33 | 99 | 1011.6 |
| 20260505184205 | 4 | 0 | 0.0 | 0.0 | 0.00 | 0.33 | 0.33 | 99 | 1011.7 |
| 20260505184105 | 4 | 0 | 0.0 | 0.0 | 0.00 | 0.33 | 0.33 | 99 | 1011.6 |
| 20260505184006 | 4 | 0 | 0.0 | 0.0 | 0.00 | 0.33 | 0.33 | 99 | 1011.7 |
| 20260505183905 | 4 | 0 | 0.0 | 0.0 | 0.00 | 0.33 | 0.33 | 99 | 1011.6 |
| 20260505183806 | 3 | 0 | 0.0 | 0.0 | 0.00 | 0.33 | 0.33 | 99 | 1011.5 |
| 20260505183705 | 4 | 0 | 0.0 | 0.0 | 0.00 | 0.33 | 0.33 | 99 | 1011.9 |
| 20260505183605 | 3 | 0 | 0.0 | 0.0 | 0.00 | 0.33 | 0.33 | 99 | 1011.5 |
| 20260505183506 | 3 | 0 | 0.0 | 0.0 | 0.00 | 0.33 | 0.33 | 99 | 1011.7 |
| 20260505183405 | 3 | 0 | 0.0 | 0.0 | 0.00 | 0.33 | 0.33 | 99 | 1011.8 |
| 20260505183305 | 3 | 0 | 0.0 | 0.0 | 0.00 | 0.33 | 0.33 | 99 | 1011.6 |
| 20260505183206 | 3 | 0 | 0.0 | 0.0 | 0.00 | 0.33 | 0.33 | 99 | 1011.7 |
| 20260505183105 | 3 | 0 | 0.0 | 0.0 | 0.00 | 0.33 | 0.33 | 99 | 1011.7 |
| 20260505183005 | 3 | 0 | 0.0 | 0.0 | 0.00 | 0.33 | 0.33 | 99 | 1011.4 |
| 20260505182906 | 3 | 0 | 0.0 | 0.0 | 0.00 | 0.33 | 0.33 | 99 | 1011.7 |
| 20260505182805 | 3 | 0 | 0.0 | 0.0 | 0.00 | 0.33 | 0.33 | 99 | 1011.5 |
| 20260505182605 | 3 | 0 | 0.0 | 0.0 | 0.00 | 0.33 | 0.33 | 99 | 1011.4 |
| 20260505182506 | 3 | 0 | 0.0 | 0.0 | 0.00 | 0.33 | 0.33 | 99 | 1011.6 |
| 20260505182405 | 3 | 0 | 0.0 | 0.0 | 0.00 | 0.33 | 0.33 | 99 | 1011.5 |
| 20260505182306 | 3 | 0 | 0.0 | 0.0 | 0.00 | 0.33 | 0.33 | 99 | 1011.6 |
| 20260505182205 | 4 | 0 | 0.0 | 0.0 | 0.00 | 0.33 | 0.33 | 99 | 1011.5 |
| 20260505182105 | 4 | 0 | 0.0 | 0.0 | 0.00 | 0.33 | 0.33 | 99 | 1011.4 |
| 20260505182006 | 4 | 0 | 0.0 | 0.0 | 0.00 | 0.33 | 0.33 | 99 | 1011.7 |
| 20260505181805 | 3 | 0 | 0.0 | 0.0 | 0.00 | 0.33 | 0.33 | 99 | 1011.5 |
| 20260505181705 | 3 | 0 | 0.0 | 0.0 | 0.00 | 0.33 | 0.33 | 99 | 1011.6 |
| 20260505181605 | 3 | 0 | 0.0 | 0.0 | 0.00 | 0.33 | 0.33 | 99 | 1011.7 |
| 20260505181506 | 3 | 0 | 0.0 | 0.0 | 0.00 | 0.33 | 0.33 | 99 | 1011.6 |
| 20260505181406 | 3 | 0 | 0.0 | 0.0 | 0.00 | 0.33 | 0.33 | 99 | 1011.5 |
| 20260505181305 | 3 | 0 | 0.0 | 0.0 | 0.00 | 0.33 | 0.33 | 99 | 1011.5 |
| 20260505181205 | 4 | 0 | 0.0 | 0.0 | 0.00 | 0.33 | 0.33 | 99 | 1011.5 |
| 20260505181105 | 4 | 0 | 0.0 | 0.0 | 0.00 | 0.33 | 0.33 | 99 | 1011.7 |
| 20260505181006 | 4 | 0 | 0.0 | 0.0 | 0.00 | 0.33 | 0.33 | 99 | 1011.5 |
| 20260505180706 | 4 | 0 | 0.0 | 0.0 | 0.00 | 0.33 | 0.33 | 99 | 1011.5 |
| 20260505180605 | 4 | 0 | 0.0 | 0.0 | 0.00 | 0.33 | 0.33 | 99 | 1011.3 |
| 20260505180506 | 4 | 0 | 0.0 | 0.0 | 0.00 | 0.33 | 0.33 | 99 | 1011.4 |
| 20260505180405 | 4 | 0 | 0.0 | 0.0 | 0.00 | 0.33 | 0.33 | 99 | 1011.8 |
| 20260505180305 | 4 | 0 | 0.0 | 0.0 | 0.00 | 0.33 | 0.33 | 99 | 1011.3 |
| 20260505180105 | 4 | 0 | 0.0 | 0.0 | 0.00 | 0.33 | 0.33 | 99 | 1011.4 |
| 20260505180006 | 4 | 0 | 0.0 | 0.0 | 0.00 | 0.33 | 0.33 | 99 | 1011.5 |
| 20260505175905 | 4 | 0 | 0.0 | 0.0 | 0.00 | 0.33 | 0.33 | 99 | 1011.4 |
| 20260505175805 | 4 | 0 | 0.0 | 0.0 | 0.00 | 0.33 | 0.33 | 99 | 1011.6 |
| 20260505175706 | 4 | 0 | 0.0 | 0.0 | 0.00 | 0.33 | 0.33 | 99 | 1011.4 |
| 20260505175605 | 4 | 0 | 0.0 | 0.0 | 0.00 | 0.33 | 0.33 | 99 | 1011.4 |
| 20260505175506 | 4 | 0 | 0.0 | 0.0 | 0.00 | 0.33 | 0.33 | 99 | 1011.5 |
| 20260505175306 | 4 | 0 | 0.0 | 0.0 | 0.00 | 0.33 | 0.33 | 99 | 1011.6 |
| 20260505175205 | 4 | 0 | 0.0 | 0.0 | 0.00 | 0.33 | 0.33 | 99 | 1011.6 |
| 20260505175006 | 4 | 0 | 0.0 | 0.0 | 0.00 | 0.33 | 0.33 | 99 | 1011.6 |
| 20260505174905 | 4 | 0 | 0.0 | 0.0 | 0.00 | 0.33 | 0.33 | 99 | 1011.7 |
| 20260505174805 | 4 | 0 | 0.0 | 0.0 | 0.00 | 0.33 | 0.33 | 99 | 1011.5 |
| 20260505174706 | 4 | 0 | 0.0 | 0.0 | 0.00 | 0.33 | 0.33 | 99 | 1011.5 |
| 20260505174605 | 4 | 0 | 0.0 | 0.0 | 0.00 | 0.33 | 0.33 | 99 | 1011.4 |
| 20260505174505 | 4 | 0 | 0.0 | 0.0 | 0.00 | 0.33 | 0.33 | 99 | 1011.5 |
| 20260505174406 | 4 | 0 | 0.0 | 0.0 | 0.00 | 0.33 | 0.33 | 99 | 1011.6 |
| 20260505174205 | 4 | 0 | 0.0 | 0.0 | 0.00 | 0.33 | 0.33 | 99 | 1011.6 |
| 20260505174105 | 4 | 0 | 0.0 | 0.0 | 0.00 | 0.33 | 0.33 | 99 | 1011.5 |
| 20260505174006 | 4 | 0 | 0.0 | 0.0 | 0.00 | 0.33 | 0.33 | 99 | 1011.6 |
| 20260505173905 | 4 | 0 | 0.0 | 0.0 | 0.00 | 0.33 | 0.33 | 99 | 1011.6 |
| 20260505173805 | 4 | 0 | 0.0 | 0.0 | 0.00 | 0.33 | 0.33 | 99 | 1011.4 |
| 20260505173705 | 4 | 0 | 0.0 | 0.0 | 0.00 | 0.33 | 0.33 | 99 | 1011.7 |
| 20260505173605 | 4 | 0 | 0.0 | 0.0 | 0.00 | 0.33 | 0.33 | 99 | 1011.6 |
| 20260505173506 | 4 | 0 | 0.0 | 0.0 | 0.00 | 0.33 | 0.33 | 99 | 1011.5 |
| 20260505173405 | 4 | 0 | 0.0 | 0.0 | 0.00 | 0.33 | 0.33 | 99 | 1011.5 |
| 20260505173305 | 4 | 0 | 0.0 | 0.0 | 0.00 | 0.33 | 0.33 | 99 | 1011.8 |
| 20260505173205 | 4 | 0 | 0.0 | 0.0 | 0.00 | 0.33 | 0.33 | 99 | 1011.5 |
| 20260505173106 | 4 | 0 | 0.0 | 0.0 | 0.00 | 0.33 | 0.33 | 99 | 1011.3 |
| 20260505173006 | 4 | 0 | 0.0 | 0.0 | 0.00 | 0.33 | 0.33 | 99 | 1011.5 |
| 20260505172905 | 4 | 0 | 0.0 | 0.0 | 0.00 | 0.33 | 0.33 | 99 | 1011.6 |
| 20260505172805 | 4 | 0 | 0.0 | 0.0 | 0.00 | 0.33 | 0.33 | 99 | 1011.6 |
| 20260505172705 | 4 | 0 | 0.0 | 0.0 | 0.00 | 0.33 | 0.33 | 99 | 1011.5 |
| 20260505172605 | 4 | 0 | 0.0 | 0.0 | 0.00 | 0.33 | 0.33 | 99 | 1011.6 |
| 20260505172306 | 4 | 0 | 0.0 | 0.0 | 0.00 | 0.33 | 0.33 | 99 | 1011.5 |
| 20260505172206 | 5 | 0 | 0.0 | 0.0 | 0.00 | 0.33 | 0.33 | 99 | 1011.4 |
| 20260505171905 | 5 | 0 | 0.0 | 0.0 | 0.00 | 0.33 | 0.33 | 99 | 1011.5 |
| 20260505171805 | 4 | 0 | 0.0 | 0.0 | 0.00 | 0.33 | 0.33 | 99 | 1011.5 |
| 20260505171705 | 4 | 0 | 0.0 | 0.0 | 0.00 | 0.33 | 0.33 | 99 | 1011.5 |
| 20260505171605 | 4 | 0 | 0.0 | 0.0 | 0.00 | 0.33 | 0.33 | 99 | 1011.6 |
| 20260505171506 | 4 | 0 | 0.0 | 0.0 | 0.00 | 0.33 | 0.33 | 99 | 1011.5 |
| 20260505171405 | 4 | 0 | 0.0 | 0.0 | 0.00 | 0.33 | 0.33 | 99 | 1011.6 |
| 20260505171305 | 4 | 0 | 0.0 | 0.0 | 0.00 | 0.33 | 0.33 | 99 | 1011.5 |
| 20260505171205 | 4 | 0 | 0.0 | 0.0 | 0.00 | 0.33 | 0.33 | 99 | 1011.4 |
| 20260505170905 | 4 | 0 | 0.0 | 0.0 | 0.00 | 0.33 | 0.33 | 99 | 1011.6 |
| 20260505170805 | 4 | 0 | 0.0 | 0.0 | 0.00 | 0.33 | 0.33 | 99 | 1011.5 |
| 20260505170605 | 5 | 0 | 0.0 | 0.0 | 0.00 | 0.33 | 0.33 | 99 | 1011.6 |
| 20260505170505 | 5 | 0 | 0.0 | 0.0 | 0.00 | 0.33 | 0.33 | 99 | 1011.5 |
| 20260505170205 | 4 | 301 | 0.0 | 3.2 | 0.00 | 0.33 | 0.33 | 99 | 1011.4 |
| 20260505170105 | 5 | 301 | 0.0 | 3.2 | 0.00 | 0.33 | 0.33 | 99 | 1011.6 |
| 20260505170006 | 5 | 301 | 0.0 | 3.2 | 0.00 | 0.33 | 0.33 | 99 | 1011.4 |
| 20260505165905 | 4 | 301 | 0.0 | 3.2 | 0.00 | 0.33 | 0.33 | 99 | 1011.5 |
| 20260505165805 | 4 | 301 | 0.0 | 3.2 | 0.00 | 0.33 | 0.33 | 99 | 1011.8 |
| 20260505165605 | 4 | 318 | 0.0 | 3.2 | 0.00 | 0.33 | 0.33 | 99 | 1011.6 |
| 20260505165505 | 4 | 318 | 0.0 | 3.2 | 0.00 | 0.33 | 0.33 | 99 | 1011.6 |
| 20260505165405 | 4 | 317 | 0.0 | 3.2 | 0.03 | 0.33 | 0.33 | 99 | 1011.7 |
| 20260505165306 | 4 | 317 | 0.0 | 3.2 | 0.03 | 0.33 | 0.33 | 99 | 1011.5 |
| 20260505165105 | 5 | 328 | 0.0 | 3.2 | 0.03 | 0.33 | 0.33 | 99 | 1011.6 |
| 20260505165006 | 5 | 328 | 0.0 | 3.2 | 0.03 | 0.33 | 0.33 | 99 | 1011.5 |
| 20260505164905 | 4 | 328 | 0.0 | 3.2 | 0.03 | 0.33 | 0.33 | 99 | 1011.5 |
| 20260505164806 | 4 | 328 | 0.0 | 3.2 | 0.03 | 0.33 | 0.33 | 99 | 1011.6 |
| 20260505164705 | 4 | 328 | 0.0 | 3.2 | 0.03 | 0.33 | 0.33 | 99 | 1011.5 |
| 20260505164605 | 4 | 314 | 0.0 | 3.2 | 0.03 | 0.33 | 0.33 | 99 | 1011.6 |
| 20260505164506 | 4 | 314 | 0.0 | 3.2 | 0.03 | 0.33 | 0.33 | 99 | 1011.6 |
| 20260505164405 | 4 | 314 | 0.0 | 3.2 | 0.03 | 0.33 | 0.33 | 99 | 1011.6 |
| 20260505164205 | 4 | 0 | 0.0 | 0.0 | 0.03 | 0.33 | 0.33 | 99 | 1011.6 |
| 20260505164105 | 4 | 0 | 0.0 | 0.0 | 0.03 | 0.33 | 0.33 | 99 | 1011.6 |
| 20260505164005 | 4 | 0 | 0.0 | 0.0 | 0.03 | 0.33 | 0.33 | 99 | 1011.6 |
| 20260505163805 | 5 | 0 | 0.0 | 0.0 | 0.03 | 0.33 | 0.33 | 99 | 1011.9 |
| 20260505163705 | 5 | 0 | 0.0 | 0.0 | 0.03 | 0.33 | 0.33 | 99 | 1011.5 |
| 20260505163605 | 5 | 0 | 0.0 | 0.0 | 0.03 | 0.33 | 0.33 | 99 | 1011.6 |
| 20260505163506 | 5 | 0 | 0.0 | 0.0 | 0.03 | 0.33 | 0.33 | 99 | 1011.7 |
| 20260505163305 | 4 | 0 | 0.0 | 0.0 | 0.03 | 0.33 | 0.33 | 99 | 1011.6 |
| 20260505163205 | 4 | 0 | 0.0 | 0.0 | 0.03 | 0.33 | 0.33 | 99 | 1011.8 |
| 20260505163105 | 4 | 0 | 0.0 | 0.0 | 0.03 | 0.33 | 0.33 | 99 | 1011.8 |
| 20260505163007 | 4 | 0 | 0.0 | 0.0 | 0.03 | 0.33 | 0.33 | 99 | 1011.7 |
| 20260505162905 | 4 | 0 | 0.0 | 0.0 | 0.03 | 0.33 | 0.33 | 99 | 1011.7 |
| 20260505162806 | 4 | 0 | 0.0 | 0.0 | 0.03 | 0.33 | 0.33 | 99 | 1011.7 |
| 20260505162705 | 4 | 0 | 0.0 | 0.0 | 0.03 | 0.33 | 0.33 | 99 | 1011.6 |
| 20260505162605 | 4 | 0 | 0.0 | 0.0 | 0.03 | 0.33 | 0.33 | 99 | 1011.7 |
| 20260505162506 | 4 | 0 | 0.0 | 0.0 | 0.03 | 0.33 | 0.33 | 99 | 1011.6 |
| 20260505162405 | 4 | 0 | 0.0 | 0.0 | 0.03 | 0.33 | 0.33 | 99 | 1011.6 |
| 20260505162006 | 4 | 337 | 0.0 | 3.2 | 0.03 | 0.33 | 0.33 | 99 | 1011.7 |
| 20260505161905 | 4 | 337 | 0.0 | 3.2 | 0.03 | 0.33 | 0.33 | 99 | 1011.7 |
| 20260505161805 | 5 | 337 | 0.0 | 3.2 | 0.03 | 0.33 | 0.33 | 99 | 1011.8 |
| 20260505161605 | 5 | 337 | 0.0 | 3.2 | 0.03 | 0.33 | 0.33 | 99 | 1011.5 |
| 20260505161505 | 4 | 333 | 1.6 | 3.2 | 0.03 | 0.33 | 0.33 | 99 | 1011.8 |
| 20260505161405 | 4 | 313 | 1.6 | 3.2 | 0.03 | 0.33 | 0.33 | 99 | 1011.6 |
| 20260505161305 | 4 | 306 | 1.6 | 3.2 | 0.03 | 0.33 | 0.33 | 99 | 1011.7 |
| 20260505161205 | 4 | 292 | 1.6 | 3.2 | 0.03 | 0.33 | 0.33 | 99 | 1011.7 |
| 20260505161105 | 4 | 273 | 0.0 | 3.2 | 0.03 | 0.33 | 0.33 | 99 | 1011.7 |
| 20260505161006 | 4 | 280 | 1.6 | 3.2 | 0.03 | 0.33 | 0.33 | 99 | 1011.7 |
| 20260505160905 | 4 | 290 | 1.6 | 3.2 | 0.03 | 0.33 | 0.33 | 99 | 1011.8 |
| 20260505160805 | 4 | 290 | 1.6 | 3.2 | 0.03 | 0.33 | 0.33 | 99 | 1011.7 |
| 20260505160705 | 4 | 290 | 1.6 | 3.2 | 0.03 | 0.33 | 0.33 | 99 | 1011.6 |
| 20260505160605 | 4 | 290 | 1.6 | 3.2 | 0.03 | 0.33 | 0.33 | 99 | 1011.7 |
| 20260505160506 | 4 | 290 | 1.6 | 3.2 | 0.03 | 0.33 | 0.33 | 99 | 1011.6 |
| 20260505160405 | 4 | 315 | 0.0 | 3.2 | 0.03 | 0.33 | 0.33 | 99 | 1011.6 |
| 20260505160306 | 4 | 337 | 0.0 | 3.2 | 0.03 | 0.33 | 0.33 | 99 | 1011.7 |
| 20260505160205 | 4 | 337 | 0.0 | 3.2 | 0.03 | 0.33 | 0.33 | 99 | 1011.7 |
| 20260505160105 | 4 | 337 | 0.0 | 3.2 | 0.03 | 0.33 | 0.33 | 99 | 1011.7 |
| 20260505153305 | 4 | 337 | 0.0 | 3.2 | 0.03 | 0.30 | 0.30 | 99 | 1012.0 |
| 20260505153205 | 4 | 337 | 0.0 | 3.2 | 0.03 | 0.30 | 0.30 | 99 | 1011.9 |
| 20260505153006 | 4 | 349 | 0.0 | 3.2 | 0.03 | 0.30 | 0.30 | 99 | 1011.8 |
| 20260505152805 | 4 | 349 | 0.0 | 3.2 | 0.03 | 0.30 | 0.30 | 99 | 1011.9 |
| 20260505152705 | 4 | 349 | 0.0 | 3.2 | 0.03 | 0.30 | 0.30 | 99 | 1011.8 |
| 20260505152605 | 5 | 1 | 0.0 | 3.2 | 0.03 | 0.30 | 0.30 | 99 | 1011.8 |
| 20260505152506 | 5 | 1 | 0.0 | 3.2 | 0.03 | 0.30 | 0.30 | 99 | 1011.7 |
| 20260505152405 | 4 | 1 | 0.0 | 3.2 | 0.03 | 0.30 | 0.30 | 99 | 1011.9 |
| 20260505152305 | 4 | 1 | 0.0 | 3.2 | 0.03 | 0.30 | 0.30 | 99 | 1011.9 |
| 20260505152205 | 4 | 320 | 0.0 | 3.2 | 0.03 | 0.30 | 0.30 | 99 | 1011.7 |
| 20260505152105 | 4 | 292 | 0.0 | 3.2 | 0.03 | 0.30 | 0.30 | 99 | 1011.8 |
| 20260505152005 | 4 | 292 | 0.0 | 3.2 | 0.03 | 0.30 | 0.30 | 99 | 1011.8 |
| 20260505151905 | 4 | 292 | 0.0 | 3.2 | 0.03 | 0.30 | 0.30 | 99 | 1011.9 |
| 20260505151805 | 4 | 303 | 0.0 | 3.2 | 0.03 | 0.30 | 0.30 | 99 | 1011.7 |
| 20260505151705 | 4 | 303 | 0.0 | 3.2 | 0.03 | 0.30 | 0.30 | 99 | 1011.8 |
| 20260505151605 | 4 | 303 | 0.0 | 3.2 | 0.03 | 0.30 | 0.30 | 99 | 1011.7 |
| 20260505151506 | 4 | 306 | 0.0 | 3.2 | 0.03 | 0.30 | 0.30 | 99 | 1011.7 |
| 20260505151405 | 4 | 306 | 0.0 | 3.2 | 0.03 | 0.30 | 0.30 | 99 | 1011.7 |
| 20260505151305 | 4 | 313 | 0.0 | 3.2 | 0.03 | 0.30 | 0.30 | 99 | 1011.6 |
| 20260505151206 | 4 | 321 | 0.0 | 3.2 | 0.03 | 0.30 | 0.30 | 99 | 1011.7 |
| 20260505151105 | 4 | 331 | 1.6 | 3.2 | 0.03 | 0.30 | 0.30 | 99 | 1011.9 |
| 20260505151005 | 4 | 333 | 1.6 | 3.2 | 0.03 | 0.30 | 0.30 | 99 | 1011.7 |
| 20260505150905 | 4 | 334 | 1.6 | 6.4 | 0.03 | 0.30 | 0.30 | 99 | 1012.0 |
| 20260505150805 | 4 | 334 | 1.6 | 6.4 | 0.03 | 0.30 | 0.30 | 99 | 1011.8 |
| 20260505150705 | 4 | 334 | 1.6 | 6.4 | 0.03 | 0.30 | 0.30 | 99 | 1011.9 |
| 20260505150605 | 4 | 335 | 1.6 | 6.4 | 0.03 | 0.30 | 0.30 | 99 | 1011.8 |
| 20260505150506 | 4 | 336 | 1.6 | 6.4 | 0.03 | 0.30 | 0.30 | 99 | 1011.9 |
| 20260505150405 | 4 | 337 | 1.6 | 6.4 | 0.03 | 0.30 | 0.30 | 99 | 1011.9 |
| 20260505150305 | 4 | 337 | 1.6 | 6.4 | 0.03 | 0.30 | 0.30 | 99 | 1011.6 |
| 20260505150205 | 4 | 328 | 3.2 | 6.4 | 0.03 | 0.30 | 0.30 | 99 | 1011.9 |
| 20260505150105 | 4 | 324 | 3.2 | 6.4 | 0.00 | 0.28 | 0.28 | 99 | 1011.9 |
| 20260505140605 | 4 | 326 | 0.0 | 3.2 | 0.00 | 0.28 | 0.28 | 99 | 1011.9 |
| 20260505140506 | 4 | 326 | 0.0 | 3.2 | 0.00 | 0.28 | 0.28 | 99 | 1011.7 |
| 20260505140405 | 4 | 327 | 0.0 | 3.2 | 0.00 | 0.28 | 0.28 | 99 | 1012.0 |
| 20260505140305 | 4 | 324 | 0.0 | 3.2 | 0.00 | 0.28 | 0.28 | 99 | 1011.9 |
| 20260505140205 | 4 | 315 | 0.0 | 3.2 | 0.00 | 0.28 | 0.28 | 99 | 1012.0 |
| 20260505130305 | 4 | 304 | 1.6 | 3.2 | 0.00 | 0.28 | 0.28 | 99 | 1012.2 |
| 20260505130205 | 4 | 314 | 1.6 | 3.2 | 0.00 | 0.28 | 0.28 | 99 | 1012.1 |
| 20260505130105 | 4 | 317 | 1.6 | 3.2 | 0.00 | 0.28 | 0.28 | 99 | 1012.2 |
| 20260505125005 | 3 | 314 | 0.0 | 3.2 | 0.00 | 0.28 | 0.28 | 99 | 1012.2 |
| 20260505124905 | 4 | 314 | 0.0 | 3.2 | 0.00 | 0.28 | 0.28 | 99 | 1012.0 |
| 20260505124805 | 4 | 314 | 0.0 | 3.2 | 0.00 | 0.28 | 0.28 | 99 | 1012.2 |
| 20260505124605 | 4 | 314 | 0.0 | 3.2 | 0.00 | 0.28 | 0.28 | 99 | 1012.2 |
| 20260505124505 | 4 | 314 | 0.0 | 3.2 | 0.00 | 0.28 | 0.28 | 99 | 1012.2 |
| 20260505124305 | 4 | 314 | 0.0 | 3.2 | 0.00 | 0.28 | 0.28 | 99 | 1012.0 |
| 20260505124007 | 4 | 305 | 1.6 | 3.2 | 0.00 | 0.28 | 0.28 | 99 | 1012.1 |
| 20260505123905 | 3 | 309 | 1.6 | 3.2 | 0.00 | 0.28 | 0.28 | 99 | 1012.0 |
| 20260505123805 | 3 | 313 | 1.6 | 3.2 | 0.00 | 0.28 | 0.28 | 99 | 1012.2 |
| 20260505123705 | 3 | 315 | 1.6 | 3.2 | 0.00 | 0.28 | 0.28 | 99 | 1011.9 |
| 20260505123605 | 3 | 316 | 1.6 | 3.2 | 0.00 | 0.28 | 0.28 | 99 | 1012.1 |
| 20260505123105 | 4 | 330 | 1.6 | 3.2 | 0.00 | 0.28 | 0.28 | 99 | 1012.0 |
| 20260505123006 | 4 | 334 | 1.6 | 3.2 | 0.00 | 0.28 | 0.28 | 99 | 1012.0 |
| 20260505122905 | 4 | 333 | 1.6 | 3.2 | 0.00 | 0.28 | 0.28 | 99 | 1012.1 |
| 20260505122805 | 4 | 337 | 1.6 | 3.2 | 0.00 | 0.28 | 0.28 | 99 | 1012.2 |
| 20260505122705 | 4 | 337 | 1.6 | 3.2 | 0.00 | 0.28 | 0.28 | 99 | 1012.2 |
| 20260505122605 | 4 | 337 | 0.0 | 3.2 | 0.00 | 0.28 | 0.28 | 99 | 1012.2 |
| 20260505122306 | 4 | 341 | 0.0 | 3.2 | 0.00 | 0.28 | 0.28 | 99 | 1012.1 |
| 20260505122205 | 4 | 336 | 0.0 | 3.2 | 0.00 | 0.28 | 0.28 | 99 | 1012.2 |
| 20260505122105 | 4 | 324 | 0.0 | 3.2 | 0.00 | 0.28 | 0.28 | 99 | 1012.0 |
| 20260505122005 | 4 | 318 | 0.0 | 3.2 | 0.00 | 0.28 | 0.28 | 99 | 1012.1 |
| 20260505121905 | 4 | 318 | 0.0 | 3.2 | 0.00 | 0.28 | 0.28 | 99 | 1012.4 |
| 20260505121804 | 4 | 305 | 0.0 | 3.2 | 0.00 | 0.28 | 0.28 | 99 | 1012.1 |
| 20260505121705 | 4 | 307 | 0.0 | 3.2 | 0.00 | 0.28 | 0.28 | 99 | 1012.0 |
| 20260505121605 | 4 | 305 | 1.6 | 3.2 | 0.00 | 0.28 | 0.28 | 99 | 1012.2 |
| 20260505121506 | 4 | 300 | 1.6 | 3.2 | 0.00 | 0.28 | 0.28 | 99 | 1012.3 |
| 20260505121405 | 4 | 300 | 1.6 | 3.2 | 0.00 | 0.28 | 0.28 | 99 | 1012.0 |
| 20260505121305 | 4 | 300 | 1.6 | 3.2 | 0.00 | 0.28 | 0.28 | 99 | 1011.9 |
| 20260505121205 | 4 | 300 | 1.6 | 3.2 | 0.00 | 0.28 | 0.28 | 99 | 1012.1 |
| 20260505121105 | 4 | 300 | 1.6 | 3.2 | 0.00 | 0.28 | 0.28 | 99 | 1012.2 |
| 20260505121005 | 3 | 299 | 0.0 | 3.2 | 0.00 | 0.28 | 0.28 | 99 | 1012.1 |
| 20260505120805 | 3 | 306 | 1.6 | 3.2 | 0.00 | 0.28 | 0.28 | 99 | 1011.9 |
| 20260505120705 | 3 | 298 | 0.0 | 3.2 | 0.00 | 0.28 | 0.28 | 99 | 1012.3 |
| 20260505120605 | 4 | 304 | 0.0 | 3.2 | 0.00 | 0.28 | 0.28 | 99 | 1012.2 |
| 20260505120506 | 4 | 315 | 0.0 | 3.2 | 0.00 | 0.28 | 0.28 | 99 | 1012.0 |
| 20260505120405 | 4 | 315 | 0.0 | 3.2 | 0.00 | 0.28 | 0.28 | 99 | 1011.9 |
| 20260505120305 | 4 | 315 | 0.0 | 3.2 | 0.00 | 0.28 | 0.28 | 99 | 1012.2 |
| 20260505120204 | 4 | 315 | 0.0 | 3.2 | 0.00 | 0.28 | 0.28 | 99 | 1012.1 |
| 20260505120105 | 4 | 315 | 0.0 | 3.2 | 0.00 | 0.28 | 0.28 | 99 | 1012.0 |
| 20260505120006 | 4 | 315 | 0.0 | 3.2 | 0.00 | 0.28 | 0.28 | 99 | 1012.1 |
| 20260505115905 | 4 | 315 | 0.0 | 3.2 | 0.00 | 0.28 | 0.28 | 99 | 1012.0 |
| 20260505115705 | 4 | 309 | 1.6 | 3.2 | 0.00 | 0.28 | 0.28 | 99 | 1012.1 |
| 20260505115605 | 4 | 303 | 1.6 | 3.2 | 0.00 | 0.28 | 0.28 | 99 | 1011.9 |
| 20260505115506 | 4 | 305 | 1.6 | 3.2 | 0.00 | 0.28 | 0.28 | 99 | 1012.1 |
| 20260505115405 | 4 | 306 | 1.6 | 3.2 | 0.00 | 0.28 | 0.28 | 99 | 1012.0 |
| 20260505115305 | 4 | 305 | 1.6 | 3.2 | 0.00 | 0.28 | 0.28 | 99 | 1012.0 |
| 20260505115205 | 4 | 305 | 1.6 | 3.2 | 0.00 | 0.28 | 0.28 | 99 | 1012.1 |
| 20260505115105 | 4 | 304 | 1.6 | 3.2 | 0.00 | 0.28 | 0.28 | 99 | 1011.9 |
| 20260505115006 | 4 | 302 | 1.6 | 3.2 | 0.00 | 0.28 | 0.28 | 99 | 1012.0 |
| 20260505114905 | 4 | 302 | 1.6 | 3.2 | 0.00 | 0.28 | 0.28 | 99 | 1012.2 |
| 20260505114805 | 4 | 298 | 1.6 | 3.2 | 0.00 | 0.28 | 0.28 | 99 | 1012.1 |
| 20260505114605 | 4 | 301 | 1.6 | 3.2 | 0.00 | 0.28 | 0.28 | 99 | 1012.2 |
| 20260505114505 | 4 | 302 | 1.6 | 3.2 | 0.03 | 0.28 | 0.28 | 99 | 1011.9 |
| 20260505114405 | 4 | 300 | 1.6 | 3.2 | 0.03 | 0.28 | 0.28 | 99 | 1012.1 |
| 20260505114305 | 4 | 308 | 1.6 | 3.2 | 0.03 | 0.28 | 0.28 | 99 | 1012.0 |
| 20260505114205 | 4 | 315 | 1.6 | 3.2 | 0.03 | 0.28 | 0.28 | 99 | 1012.0 |
| 20260505114105 | 3 | 322 | 1.6 | 3.2 | 0.03 | 0.28 | 0.28 | 99 | 1012.1 |
| 20260505114006 | 3 | 331 | 1.6 | 3.2 | 0.03 | 0.28 | 0.28 | 99 | 1012.1 |
| 20260505113905 | 3 | 342 | 1.6 | 3.2 | 0.03 | 0.28 | 0.28 | 99 | 1011.9 |
| 20260505113705 | 4 | 342 | 1.6 | 3.2 | 0.03 | 0.28 | 0.28 | 99 | 1012.2 |
| 20260505113605 | 4 | 342 | 1.6 | 3.2 | 0.03 | 0.28 | 0.28 | 99 | 1012.3 |
| 20260505113506 | 4 | 343 | 1.6 | 3.2 | 0.03 | 0.28 | 0.28 | 99 | 1012.1 |
| 20260505113305 | 4 | 330 | 1.6 | 3.2 | 0.03 | 0.28 | 0.28 | 99 | 1012.2 |
| 20260505113204 | 4 | 322 | 1.6 | 3.2 | 0.03 | 0.28 | 0.28 | 99 | 1012.2 |
| 20260505113105 | 3 | 323 | 1.6 | 3.2 | 0.03 | 0.28 | 0.28 | 99 | 1012.3 |
| 20260505113005 | 3 | 328 | 1.6 | 3.2 | 0.03 | 0.28 | 0.28 | 99 | 1012.1 |
| 20260505112905 | 3 | 322 | 1.6 | 3.2 | 0.03 | 0.28 | 0.28 | 99 | 1012.1 |
| 20260505112805 | 3 | 327 | 1.6 | 3.2 | 0.03 | 0.28 | 0.28 | 99 | 1012.2 |
| 20260505112705 | 3 | 328 | 1.6 | 3.2 | 0.03 | 0.28 | 0.28 | 99 | 1011.9 |
| 20260505112605 | 3 | 326 | 3.2 | 6.4 | 0.03 | 0.28 | 0.28 | 99 | 1012.1 |
| 20260505112505 | 3 | 328 | 3.2 | 6.4 | 0.03 | 0.28 | 0.28 | 99 | 1012.3 |
| 20260505112205 | 3 | 330 | 3.2 | 6.4 | 0.03 | 0.28 | 0.28 | 99 | 1012.2 |
| 20260505112006 | 3 | 321 | 3.2 | 6.4 | 0.03 | 0.28 | 0.28 | 99 | 1012.1 |
| 20260505111905 | 3 | 320 | 3.2 | 6.4 | 0.03 | 0.28 | 0.28 | 99 | 1011.9 |
| 20260505111805 | 4 | 318 | 3.2 | 6.4 | 0.03 | 0.28 | 0.28 | 99 | 1012.2 |
| 20260505111705 | 4 | 316 | 3.2 | 6.4 | 0.03 | 0.28 | 0.28 | 99 | 1012.2 |
| 20260505111605 | 4 | 316 | 1.6 | 3.2 | 0.03 | 0.28 | 0.28 | 99 | 1012.3 |
| 20260505111405 | 4 | 313 | 1.6 | 3.2 | 0.03 | 0.28 | 0.28 | 99 | 1012.0 |
| 20260505111305 | 4 | 310 | 1.6 | 3.2 | 0.03 | 0.28 | 0.28 | 99 | 1012.2 |
| 20260505111205 | 4 | 318 | 1.6 | 3.2 | 0.03 | 0.28 | 0.28 | 99 | 1012.0 |
| 20260505111105 | 4 | 322 | 1.6 | 3.2 | 0.03 | 0.28 | 0.28 | 99 | 1012.1 |
| 20260505111005 | 4 | 318 | 1.6 | 3.2 | 0.03 | 0.28 | 0.28 | 99 | 1012.0 |
| 20260505110905 | 4 | 316 | 1.6 | 3.2 | 0.03 | 0.28 | 0.28 | 99 | 1012.0 |
| 20260505110805 | 4 | 312 | 1.6 | 3.2 | 0.03 | 0.28 | 0.28 | 99 | 1012.0 |
| 20260505110705 | 4 | 312 | 1.6 | 3.2 | 0.03 | 0.28 | 0.28 | 99 | 1012.2 |
| 20260505110506 | 4 | 308 | 1.6 | 3.2 | 0.03 | 0.28 | 0.28 | 99 | 1012.1 |
| 20260505110405 | 4 | 308 | 1.6 | 3.2 | 0.03 | 0.28 | 0.28 | 99 | 1012.0 |
| 20260505110305 | 4 | 306 | 1.6 | 3.2 | 0.03 | 0.28 | 0.28 | 99 | 1012.1 |
| 20260505110205 | 4 | 304 | 1.6 | 3.2 | 0.03 | 0.28 | 0.28 | 99 | 1011.9 |
| 20260505110105 | 4 | 304 | 1.6 | 3.2 | 0.03 | 0.28 | 0.28 | 99 | 1012.2 |
| 20260505102205 | 4 | 295 | 1.6 | 3.2 | 0.05 | 0.23 | 0.23 | 99 | 1012.2 |
| 20260505102104 | 4 | 292 | 1.6 | 3.2 | 0.05 | 0.23 | 0.23 | 99 | 1012.2 |
| 20260505102006 | 4 | 295 | 1.6 | 3.2 | 0.05 | 0.23 | 0.23 | 99 | 1012.2 |
| 20260505101905 | 4 | 302 | 1.6 | 3.2 | 0.05 | 0.23 | 0.23 | 99 | 1012.1 |
| 20260505101805 | 4 | 306 | 3.2 | 3.2 | 0.05 | 0.23 | 0.23 | 99 | 1012.2 |
| 20260505101605 | 4 | 309 | 3.2 | 3.2 | 0.05 | 0.23 | 0.23 | 99 | 1012.2 |
| 20260505101506 | 4 | 309 | 3.2 | 6.4 | 0.05 | 0.23 | 0.23 | 99 | 1012.4 |
| 20260505101405 | 4 | 315 | 3.2 | 6.4 | 0.05 | 0.23 | 0.23 | 99 | 1012.3 |
| 20260505101305 | 4 | 315 | 3.2 | 6.4 | 0.05 | 0.23 | 0.23 | 99 | 1012.4 |
| 20260505101105 | 5 | 317 | 3.2 | 6.4 | 0.05 | 0.23 | 0.23 | 99 | 1012.3 |
| 20260505101006 | 5 | 321 | 3.2 | 6.4 | 0.05 | 0.23 | 0.23 | 99 | 1012.2 |
| 20260505100905 | 5 | 319 | 3.2 | 6.4 | 0.05 | 0.23 | 0.23 | 99 | 1012.2 |
| 20260505100805 | 4 | 321 | 3.2 | 6.4 | 0.05 | 0.23 | 0.23 | 99 | 1012.3 |
| 20260505100705 | 4 | 321 | 3.2 | 6.4 | 0.05 | 0.23 | 0.23 | 99 | 1012.1 |
| 20260505100505 | 5 | 326 | 3.2 | 6.4 | 0.05 | 0.23 | 0.23 | 99 | 1012.2 |
| 20260505100405 | 5 | 325 | 3.2 | 6.4 | 0.10 | 0.23 | 0.23 | 99 | 1012.3 |
| 20260505100305 | 4 | 323 | 3.2 | 6.4 | 0.10 | 0.23 | 0.23 | 99 | 1012.2 |
| 20260505100205 | 4 | 320 | 3.2 | 6.4 | 0.10 | 0.23 | 0.23 | 99 | 1012.0 |
| 20260505095905 | 5 | 321 | 3.2 | 6.4 | 0.05 | 0.20 | 0.20 | 99 | 1012.1 |
| 20260505095804 | 4 | 322 | 3.2 | 6.4 | 0.05 | 0.20 | 0.20 | 99 | 1012.2 |
| 20260505095704 | 4 | 319 | 4.8 | 9.7 | 0.05 | 0.20 | 0.20 | 99 | 1012.2 |
| 20260505095505 | 4 | 317 | 4.8 | 9.7 | 0.05 | 0.20 | 0.20 | 99 | 1012.2 |
| 20260505095405 | 4 | 316 | 4.8 | 9.7 | 0.10 | 0.20 | 0.20 | 99 | 1012.1 |
| 20260505095305 | 3 | 317 | 4.8 | 9.7 | 0.10 | 0.20 | 0.20 | 99 | 1012.3 |
| 20260505095105 | 4 | 319 | 4.8 | 9.7 | 0.10 | 0.20 | 0.20 | 99 | 1012.4 |
| 20260505095005 | 4 | 316 | 6.4 | 9.7 | 0.10 | 0.20 | 0.20 | 99 | 1012.3 |
| 20260505094904 | 4 | 316 | 6.4 | 9.7 | 0.13 | 0.20 | 0.20 | 99 | 1012.2 |
| 20260505094805 | 4 | 312 | 4.8 | 9.7 | 0.13 | 0.20 | 0.20 | 99 | 1012.1 |
| 20260505094605 | 4 | 316 | 4.8 | 6.4 | 0.13 | 0.20 | 0.20 | 99 | 1012.2 |
| 20260505094506 | 4 | 316 | 3.2 | 6.4 | 0.13 | 0.20 | 0.20 | 99 | 1012.1 |
| 20260505094305 | 5 | 315 | 3.2 | 6.4 | 0.13 | 0.20 | 0.20 | 99 | 1012.1 |
| 20260505094205 | 5 | 314 | 1.6 | 6.4 | 0.13 | 0.20 | 0.20 | 99 | 1012.4 |
| 20260505094105 | 5 | 312 | 1.6 | 6.4 | 0.13 | 0.20 | 0.20 | 99 | 1012.2 |
| 20260505093905 | 5 | 313 | 1.6 | 3.2 | 0.15 | 0.20 | 0.20 | 99 | 1012.2 |
| 20260505093508 | 5 | 314 | 0.0 | 3.2 | 0.15 | 0.20 | 0.20 | 99 | 1012.3 |
| 20260505093405 | 5 | 314 | 0.0 | 3.2 | 0.15 | 0.20 | 0.20 | 99 | 1012.3 |
| 20260505093307 | 5 | 314 | 1.6 | 3.2 | 0.15 | 0.20 | 0.20 | 99 | 1012.3 |
| 20260505092904 | 5 | 295 | 1.6 | 3.2 | 0.15 | 0.20 | 0.20 | 99 | 1012.3 |
| 20260505092804 | 5 | 311 | 0.0 | 3.2 | 0.18 | 0.20 | 0.20 | 99 | 1012.5 |
| 20260505092605 | 5 | 287 | 0.0 | 3.2 | 0.18 | 0.20 | 0.20 | 99 | 1012.3 |
| 20260505092505 | 5 | 285 | 0.0 | 3.2 | 0.15 | 0.18 | 0.18 | 99 | 1012.3 |
| 20260505092405 | 5 | 288 | 0.0 | 3.2 | 0.15 | 0.18 | 0.18 | 99 | 1012.1 |
| 20260505092205 | 4 | 303 | 0.0 | 3.2 | 0.15 | 0.18 | 0.18 | 99 | 1012.1 |
| 20260505092104 | 4 | 301 | 0.0 | 3.2 | 0.15 | 0.18 | 0.18 | 99 | 1012.3 |
| 20260505092005 | 4 | 292 | 0.0 | 3.2 | 0.15 | 0.18 | 0.18 | 99 | 1012.3 |
| 20260505091804 | 4 | 287 | 0.0 | 3.2 | 0.18 | 0.18 | 0.18 | 97 | 1012.2 |
| 20260505091705 | 3 | 257 | 0.0 | 3.2 | 0.18 | 0.18 | 0.18 | 95 | 1012.2 |
| 20260505091605 | 4 | 198 | 0.0 | 3.2 | 0.18 | 0.18 | 0.18 | 97 | 1012.4 |
| 20260505091506 | 4 | 207 | 1.6 | 3.2 | 0.18 | 0.18 | 0.18 | 98 | 1012.2 |
| 20260505091405 | 4 | 207 | 1.6 | 3.2 | 0.18 | 0.18 | 0.18 | 99 | 1012.4 |
| 20260505091204 | 4 | 206 | 1.6 | 3.2 | 0.18 | 0.18 | 0.18 | 97 | 1012.3 |
| 20260505091105 | 4 | 204 | 1.6 | 3.2 | 0.18 | 0.18 | 0.18 | 97 | 1012.3 |
| 20260505091005 | 3 | 206 | 1.6 | 3.2 | 0.18 | 0.18 | 0.18 | 97 | 1012.4 |
| 20260505090805 | 3 | 204 | 1.6 | 3.2 | 0.18 | 0.18 | 0.18 | 97 | 1012.3 |
| 20260505090705 | 3 | 204 | 1.6 | 3.2 | 0.18 | 0.18 | 0.18 | 97 | 1012.5 |
| 20260505090605 | 3 | 222 | 1.6 | 3.2 | 0.18 | 0.18 | 0.18 | 95 | 1012.4 |
| 20260505090505 | 4 | 225 | 1.6 | 3.2 | 0.15 | 0.15 | 0.15 | 96 | 1012.2 |
| 20260505090404 | 4 | 225 | 0.0 | 3.2 | 0.15 | 0.15 | 0.15 | 96 | 1012.4 |
| 20260505090304 | 4 | 217 | 0.0 | 3.2 | 0.15 | 0.15 | 0.15 | 97 | 1012.1 |
| 20260505090105 | 4 | 248 | 0.0 | 3.2 | 0.15 | 0.15 | 0.15 | 97 | 1012.3 |
| 20260505090005 | 4 | 135 | 0.0 | 3.2 | 0.15 | 0.15 | 0.15 | 98 | 1012.4 |
| 20260505085905 | 4 | 135 | 0.0 | 3.2 | 0.15 | 0.15 | 0.15 | 98 | 1012.3 |
| 20260505085604 | 4 | 135 | 0.0 | 3.2 | 0.13 | 0.13 | 0.13 | 97 | 1012.5 |
| 20260505085404 | 4 | 142 | 0.0 | 3.2 | 0.13 | 0.13 | 0.13 | 97 | 1012.2 |
| 20260505085205 | 4 | 176 | 0.0 | 3.2 | 0.10 | 0.10 | 0.10 | 96 | 1012.4 |
| 20260505085104 | 4 | 190 | 1.6 | 3.2 | 0.10 | 0.10 | 0.10 | 96 | 1012.2 |
| 20260505085005 | 3 | 199 | 1.6 | 3.2 | 0.10 | 0.10 | 0.10 | 96 | 1012.5 |
| 20260505084904 | 3 | 202 | 0.0 | 3.2 | 0.10 | 0.10 | 0.10 | 95 | 1012.4 |
| 20260505084805 | 3 | 202 | 0.0 | 3.2 | 0.10 | 0.10 | 0.10 | 95 | 1012.4 |
| 20260505084705 | 3 | 202 | 0.0 | 3.2 | 0.10 | 0.10 | 0.10 | 95 | 1012.3 |
| 20260505084605 | 3 | 210 | 1.6 | 3.2 | 0.10 | 0.10 | 0.10 | 95 | 1012.4 |
| 20260505084505 | 3 | 205 | 1.6 | 3.2 | 0.10 | 0.10 | 0.10 | 96 | 1012.4 |
| 20260505084404 | 3 | 207 | 1.6 | 3.2 | 0.10 | 0.10 | 0.10 | 95 | 1012.5 |
| 20260505084204 | 3 | 207 | 0.0 | 3.2 | 0.05 | 0.05 | 0.05 | 95 | 1012.2 |
| 20260505084105 | 3 | 192 | 0.0 | 3.2 | 0.05 | 0.05 | 0.05 | 95 | 1012.3 |
| 20260505084006 | 3 | 215 | 0.0 | 3.2 | 0.05 | 0.05 | 0.05 | 96 | 1012.3 |
| 20260505083805 | 3 | 208 | 0.0 | 3.2 | 0.05 | 0.05 | 0.05 | 97 | 1012.2 |
| 20260505083705 | 4 | 208 | 0.0 | 3.2 | 0.05 | 0.05 | 0.05 | 97 | 1012.2 |
| 20260505083604 | 4 | 188 | 0.0 | 3.2 | 0.05 | 0.05 | 0.05 | 98 | 1012.2 |
| 20260505083505 | 4 | 203 | 0.0 | 3.2 | 0.05 | 0.05 | 0.05 | 98 | 1012.5 |
| 20260505083204 | 4 | 203 | 0.0 | 3.2 | 0.05 | 0.05 | 0.05 | 98 | 1012.4 |
| 20260505083105 | 5 | 203 | 0.0 | 3.2 | 0.05 | 0.05 | 0.05 | 98 | 1012.4 |
| 20260505083005 | 5 | 203 | 0.0 | 3.2 | 0.05 | 0.05 | 0.05 | 98 | 1012.2 |
| 20260505082905 | 5 | 197 | 0.0 | 3.2 | 0.05 | 0.05 | 0.05 | 96 | 1012.2 |
| 20260505082805 | 5 | 181 | 0.0 | 3.2 | 0.03 | 0.03 | 0.03 | 97 | 1012.5 |
| 20260505082704 | 4 | 181 | 0.0 | 3.2 | 0.03 | 0.03 | 0.03 | 97 | 1012.2 |
| 20260505082604 | 4 | 181 | 0.0 | 3.2 | 0.03 | 0.03 | 0.03 | 97 | 1012.5 |
| 20260505082505 | 4 | 181 | 0.0 | 3.2 | 0.03 | 0.03 | 0.03 | 96 | 1012.3 |
| 20260505082404 | 4 | 181 | 0.0 | 3.2 | 0.03 | 0.03 | 0.03 | 96 | 1012.1 |
| 20260505082305 | 4 | 181 | 0.0 | 3.2 | 0.03 | 0.03 | 0.03 | 95 | 1012.2 |
| 20260505082205 | 5 | 181 | 0.0 | 3.2 | 0.03 | 0.03 | 0.03 | 94 | 1012.2 |
| 20260505081905 | 5 | 181 | 0.0 | 3.2 | 0.00 | 0.00 | 0.00 | 93 | 1012.2 |
| 20260505081805 | 5 | 0 | 0.0 | 0.0 | 0.00 | 0.00 | 0.00 | 94 | 1012.1 |
| 20260505081705 | 5 | 0 | 0.0 | 0.0 | 0.00 | 0.00 | 0.00 | 94 | 1012.2 |
| 20260505081604 | 5 | 0 | 0.0 | 0.0 | 0.00 | 0.00 | 0.00 | 94 | 1012.3 |
| 20260505081505 | 5 | 0 | 0.0 | 0.0 | 0.00 | 0.00 | 0.00 | 94 | 1012.1 |
| 20260505081404 | 5 | 0 | 0.0 | 0.0 | 0.00 | 0.00 | 0.00 | 93 | 1012.3 |
| 20260505081305 | 5 | 0 | 0.0 | 0.0 | 0.00 | 0.00 | 0.00 | 93 | 1012.4 |
| 20260505081205 | 5 | 225 | 0.0 | 3.2 | 0.00 | 0.00 | 0.00 | 93 | 1012.3 |
| 20260505081104 | 5 | 225 | 0.0 | 3.2 | 0.00 | 0.00 | 0.00 | 93 | 1012.1 |
| 20260505081005 | 5 | 225 | 0.0 | 3.2 | 0.00 | 0.00 | 0.00 | 94 | 1012.2 |
| 20260505080904 | 5 | 225 | 0.0 | 3.2 | 0.00 | 0.00 | 0.00 | 93 | 1012.1 |
| 20260505080804 | 5 | 225 | 0.0 | 3.2 | 0.00 | 0.00 | 0.00 | 92 | 1012.1 |
| 20260505080705 | 5 | 225 | 0.0 | 3.2 | 0.00 | 0.00 | 0.00 | 93 | 1012.2 |
| 20260505080605 | 5 | 225 | 0.0 | 3.2 | 0.00 | 0.00 | 0.00 | 90 | 1012.2 |
| 20260505080505 | 5 | 225 | 0.0 | 3.2 | 0.00 | 0.00 | 0.00 | 91 | 1012.1 |
| 20260505080405 | 5 | 225 | 0.0 | 3.2 | 0.00 | 0.00 | 0.00 | 91 | 1012.3 |
| 20260505080305 | 5 | 225 | 0.0 | 3.2 | 0.00 | 0.00 | 0.00 | 91 | 1012.1 |
| 20260505080204 | 5 | 225 | 0.0 | 3.2 | 0.00 | 0.00 | 0.00 | 91 | 1012.3 |
| 20260505080104 | 5 | 0 | 0.0 | 0.0 | 0.00 | 0.00 | 0.00 | 90 | 1012.2 |
| 20260505080005 | 5 | 0 | 0.0 | 0.0 | 0.00 | 0.00 | 0.00 | 92 | 1012.4 |
| 20260505075705 | 5 | 0 | 0.0 | 0.0 | 0.00 | 0.00 | 0.00 | 91 | 1012.1 |
| 20260505075605 | 5 | 0 | 0.0 | 0.0 | 0.00 | 0.00 | 0.00 | 88 | 1012.1 |
| 20260505075304 | 5 | 302 | 1.6 | 3.2 | 0.00 | 0.00 | 0.00 | 88 | 1012.2 |
| 20260505075205 | 5 | 294 | 1.6 | 3.2 | 0.00 | 0.00 | 0.00 | 88 | 1012.3 |
| 20260505075104 | 5 | 292 | 1.6 | 3.2 | 0.00 | 0.00 | 0.00 | 88 | 1012.2 |
| 20260505075005 | 5 | 289 | 1.6 | 3.2 | 0.00 | 0.00 | 0.00 | 87 | 1012.2 |
| 20260505074904 | 5 | 289 | 1.6 | 3.2 | 0.00 | 0.00 | 0.00 | 87 | 1012.2 |
| 20260505074804 | 5 | 293 | 1.6 | 3.2 | 0.00 | 0.00 | 0.00 | 87 | 1012.2 |
| 20260505074704 | 5 | 296 | 1.6 | 3.2 | 0.00 | 0.00 | 0.00 | 86 | 1012.1 |
| 20260505074505 | 5 | 296 | 3.2 | 3.2 | 0.00 | 0.00 | 0.00 | 83 | 1012.1 |
| 20260505074404 | 6 | 296 | 1.6 | 3.2 | 0.00 | 0.00 | 0.00 | 83 | 1012.0 |
| 20260505074205 | 6 | 296 | 1.6 | 3.2 | 0.00 | 0.00 | 0.00 | 81 | 1012.1 |
| 20260505074105 | 6 | 297 | 1.6 | 3.2 | 0.00 | 0.00 | 0.00 | 82 | 1012.2 |
| 20260505074005 | 6 | 300 | 1.6 | 3.2 | 0.00 | 0.00 | 0.00 | 82 | 1012.3 |
| 20260505073905 | 5 | 301 | 1.6 | 3.2 | 0.00 | 0.00 | 0.00 | 81 | 1012.1 |
| 20260505073804 | 5 | 293 | 1.6 | 3.2 | 0.00 | 0.00 | 0.00 | 81 | 1012.2 |
| 20260505073705 | 5 | 291 | 1.6 | 3.2 | 0.00 | 0.00 | 0.00 | 81 | 1012.1 |
| 20260505073605 | 6 | 291 | 1.6 | 3.2 | 0.00 | 0.00 | 0.00 | 80 | 1012.2 |
| 20260505073404 | 6 | 289 | 1.6 | 3.2 | 0.00 | 0.00 | 0.00 | 82 | 1012.2 |
| 20260505073305 | 6 | 292 | 1.6 | 3.2 | 0.00 | 0.00 | 0.00 | 80 | 1012.1 |
| 20260505073205 | 6 | 292 | 1.6 | 3.2 | 0.00 | 0.00 | 0.00 | 80 | 1012.2 |
| 20260505073104 | 6 | 292 | 1.6 | 3.2 | 0.00 | 0.00 | 0.00 | 80 | 1012.1 |
| 20260505073005 | 6 | 292 | 1.6 | 3.2 | 0.00 | 0.00 | 0.00 | 80 | 1012.2 |
| 20260505072904 | 6 | 294 | 1.6 | 3.2 | 0.00 | 0.00 | 0.00 | 79 | 1012.1 |
| 20260505072804 | 6 | 299 | 1.6 | 3.2 | 0.00 | 0.00 | 0.00 | 79 | 1012.2 |
| 20260505072705 | 6 | 298 | 1.6 | 3.2 | 0.00 | 0.00 | 0.00 | 79 | 1012.3 |
| 20260505072505 | 6 | 292 | 1.6 | 3.2 | 0.00 | 0.00 | 0.00 | 78 | 1012.2 |
| 20260505072405 | 6 | 296 | 1.6 | 3.2 | 0.00 | 0.00 | 0.00 | 79 | 1012.1 |
| 20260505072205 | 6 | 295 | 1.6 | 3.2 | 0.00 | 0.00 | 0.00 | 80 | 1012.2 |
| 20260505072104 | 6 | 296 | 1.6 | 3.2 | 0.00 | 0.00 | 0.00 | 78 | 1012.1 |
| 20260505072005 | 6 | 294 | 1.6 | 3.2 | 0.00 | 0.00 | 0.00 | 77 | 1012.1 |
| 20260505071904 | 6 | 292 | 1.6 | 3.2 | 0.00 | 0.00 | 0.00 | 78 | 1012.3 |
| 20260505071804 | 6 | 292 | 1.6 | 3.2 | 0.00 | 0.00 | 0.00 | 79 | 1012.3 |
| 20260505071704 | 6 | 293 | 1.6 | 3.2 | 0.00 | 0.00 | 0.00 | 78 | 1012.2 |
| 20260505071605 | 6 | 294 | 1.6 | 3.2 | 0.00 | 0.00 | 0.00 | 78 | 1012.2 |
| 20260505071505 | 6 | 294 | 1.6 | 3.2 | 0.00 | 0.00 | 0.00 | 78 | 1012.2 |
| 20260505071305 | 6 | 290 | 1.6 | 3.2 | 0.00 | 0.00 | 0.00 | 77 | 1012.1 |
| 20260505071104 | 6 | 281 | 1.6 | 3.2 | 0.00 | 0.00 | 0.00 | 78 | 1012.3 |
| 20260505070904 | 6 | 279 | 3.2 | 3.2 | 0.00 | 0.00 | 0.00 | 77 | 1012.1 |
| 20260505070804 | 6 | 282 | 1.6 | 3.2 | 0.00 | 0.00 | 0.00 | 77 | 1012.1 |
| 20260505070704 | 6 | 281 | 1.6 | 3.2 | 0.00 | 0.00 | 0.00 | 77 | 1012.1 |
| 20260505070505 | 6 | 275 | 1.6 | 3.2 | 0.00 | 0.00 | 0.00 | 77 | 1012.2 |
| 20260505070404 | 6 | 275 | 1.6 | 3.2 | 0.00 | 0.00 | 0.00 | 77 | 1012.3 |